GFSNW_sfc_thetae_000.txt.gz
Theta_e
316 316 315 314 315 312 310 309 299 318 319 304 304 300 302 305 306 309 306 304 302 299 299 299 299 298 303 307 307 301 304 299 293 295 301 302 300 296 297 290 288 291 291 291
315 316 316 316 314 312 305 301 303 317 316 296 297 301 300 303 303 305 303 301 304 304 300 296 300 301 306 307 305 302 303 297 290 293 296 299 296 298 298 297 295 290 288 291
315 315 316 315 315 313 308 301 293 302 307 306 300 298 298 298 305 303 304 302 304 302 300 302 298 300 305 304 306 314 308 299 295 289 294 297 293 296 298 296 291 291 291 294
315 315 315 315 315 314 308 300 297 300 292 296 297 296 295 294 295 301 303 298 298 298 295 297 297 301 301 304 306 305 303 294 296 298 299 300 299 297 296 294 295 291 294 295
314 314 315 315 314 313 306 297 296 298 294 295 292 292 290 290 293 295 295 296 298 298 294 297 294 297 297 297 300 296 299 293 297 294 298 298 296 299 299 296 296 296 297 296
313 313 314 314 313 311 303 305 303 297 294 292 291 291 291 292 293 294 295 294 293 295 297 299 300 301 299 297 293 290 290 290 291 289 296 296 292 297 299 299 299 297 293 298
313 314 314 313 313 311 306 304 304 296 289 292 291 292 293 291 292 291 294 295 292 295 299 299 299 298 297 296 296 297 290 289 288 286 292 285 296 303 302 300 301 301 300 301
312 313 313 313 313 313 308 307 303 297 290 292 292 292 292 294 294 293 293 295 297 301 298 291 288 288 289 291 294 295 297 293 288 286 287 293 297 300 300 297 296 303 301 302
311 312 313 313 313 312 309 307 308 302 292 290 294 292 294 290 290 292 293 298 299 299 294 290 282 281 285 284 289 298 298 298 291 288 285 284 295 302 303 300 291 301 302 303
311 312 312 313 312 312 310 306 309 302 293 296 296 291 291 295 293 290 292 293 293 297 290 285 283 282 288 282 283 284 288 288 284 284 281 289 299 303 303 290 292 301 302 302
310 310 311 312 312 312 309 305 308 303 296 297 299 298 294 295 294 288 292 291 292 290 285 285 284 284 286 286 288 287 286 284 283 286 282 282 298 298 292 295 298 299 300 301
309 309 310 311 312 311 310 302 308 308 299 297 303 303 303 301 300 295 295 292 292 293 288 288 288 284 286 284 279 289 283 290 286 288 289 295 297 299 299 299 300 298 299 300
309 309 309 310 310 310 309 304 306 304 297 296 297 295 301 305 303 304 292 294 296 295 297 291 289 284 288 281 283 285 288 293 289 288 293 294 297 298 299 301 299 300 299 300
309 309 309 309 309 309 309 304 306 303 298 289 292 302 299 304 303 302 302 299 299 298 296 291 287 286 291 285 287 286 289 291 288 288 291 294 296 298 299 301 302 301 301 300
309 309 309 309 309 309 308 306 306 306 297 288 291 298 300 302 302 300 301 299 297 295 291 289 286 290 289 289 288 285 290 289 287 287 294 294 294 297 301 300 301 302 300 300
309 309 309 308 308 308 303 295 303 306 305 294 287 298 297 299 300 298 298 298 297 295 292 290 291 294 290 285 283 289 292 293 294 291 295 295 296 298 299 299 300 304 305 304
309 309 309 308 308 305 297 294 300 306 305 293 286 287 296 298 298 297 297 298 296 294 292 290 288 290 291 287 282 288 291 293 293 295 296 293 296 295 299 300 302 304 305 306
310 310 309 308 307 305 299 303 306 306 298 295 285 287 290 298 293 291 297 294 295 293 290 290 288 290 289 283 288 291 292 293 293 294 296 295 297 298 299 300 301 300 299 302
309 308 307 305 303 299 302 306 306 305 298 286 285 285 284 295 292 292 292 293 286 292 287 288 288 286 282 286 288 290 292 292 292 295 296 297 296 296 296 298 299 298 299 297
307 305 299 295 298 305 304 300 293 291 289 288 285 289 287 292 291 289 288 287 285 283 286 290 285 284 289 291 292 293 293 294 295 292 292 293 293 294 295 296 297 299 296 295
304 298 294 300 303 298 294 289 287 289 286 289 290 289 286 293 287 287 289 287 286 281 285 284 283 282 288 292 293 295 296 296 295 293 293 293 294 294 295 295 297 298 295 294
300 298 301 297 292 289 286 285 289 286 284 289 287 288 289 291 294 288 287 284 286 279 288 283 280 285 290 292 292 293 294 294 294 295 294 293 294 296 296 295 297 299 295 294
302 293 290 288 288 282 282 280 284 284 289 290 289 286 289 290 290 287 286 282 281 288 282 280 283 289 292 292 293 293 294 293 292 292 293 294 295 296 296 296 293 293 293 294
291 287 282 284 284 284 286 286 286 290 289 289 289 288 287 289 285 286 282 285 285 278 277 278 285 290 292 293 293 293 292 293 290 290 292 293 294 294 295 296 293 293 292 293
287 288 281 284 289 290 290 291 290 291 292 290 288 287 288 286 283 284 284 281 277 280 279 285 290 291 291 291 292 292 292 291 288 289 290 292 293 292 292 293 292 292 292 292
288 286 284 288 288 287 289 290 289 293 291 291 289 284 282 282 283 282 280 278 278 282 287 290 291 290 291 291 292 292 291 288 288 288 291 291 291 289 289 291 291 291 291 291
286 285 289 287 287 287 288 290 289 292 288 283 285 281 280 286 282 280 283 282 285 288 290 291 291 289 290 291 292 291 289 287 287 289 289 289 289 289 289 288 289 291 291 291

GFSNW_sfc_thetae_003.txt.gz
Theta_e
316 316 315 315 316 313 305 300 293 312 312 297 295 291 297 302 300 303 302 301 299 297 297 295 295 295 298 304 303 298 300 295 290 293 297 299 297 294 295 288 283 287 288 288
315 315 315 315 314 312 301 295 294 306 308 289 289 295 298 300 300 300 301 300 303 302 298 294 296 298 304 304 303 300 302 295 288 290 292 294 292 295 294 295 289 288 286 289
314 314 315 315 314 313 302 294 286 293 298 297 293 292 291 291 297 296 297 297 299 298 296 298 297 297 303 304 303 306 303 297 293 288 291 294 290 293 295 293 288 290 290 292
314 314 315 315 314 313 302 294 289 293 287 289 289 287 288 287 287 293 293 292 293 290 289 293 293 296 297 300 303 297 295 291 293 292 292 294 295 295 294 292 293 289 292 292
314 314 314 314 314 312 300 291 290 291 289 289 287 288 285 288 290 289 288 288 290 290 286 288 286 291 292 293 295 293 295 286 287 284 290 290 288 293 294 295 295 294 295 294
312 313 313 314 313 309 296 298 299 296 292 287 285 286 288 290 291 291 293 291 289 288 290 292 293 293 294 295 292 290 290 288 284 280 288 286 282 290 295 297 297 296 291 297
312 313 313 313 313 310 301 298 296 290 286 288 288 290 292 291 291 288 292 292 289 292 298 296 294 292 293 294 294 295 289 286 287 281 284 277 288 300 300 298 300 300 299 300
312 312 312 312 313 312 302 301 299 294 287 288 289 290 290 291 292 291 291 293 294 294 293 287 284 284 285 287 290 290 291 288 285 282 282 286 290 296 294 293 292 299 299 301
311 311 312 312 312 312 303 300 301 298 291 288 291 290 290 287 287 288 291 295 296 293 289 285 273 277 281 280 285 291 291 290 286 284 280 277 288 295 300 297 289 297 296 295
310 310 310 311 311 312 306 300 302 295 290 293 293 289 290 292 291 289 291 290 290 291 285 281 278 278 285 278 279 280 281 282 281 282 281 284 292 295 298 286 287 295 296 296
310 309 309 310 310 311 304 301 303 297 292 293 296 296 292 292 292 288 290 289 288 286 282 281 279 278 283 283 284 282 281 280 279 280 279 277 297 297 291 294 295 296 295 295
308 310 310 309 309 310 308 299 303 304 297 294 299 299 300 299 298 294 293 291 289 292 285 284 283 279 281 282 278 287 279 285 281 283 283 291 292 293 300 300 297 296 296 297
309 310 310 309 309 310 308 299 300 300 295 293 293 292 298 301 301 302 291 293 294 292 293 289 287 283 283 279 280 281 286 287 284 284 288 290 292 295 296 298 298 298 301 301
309 310 310 310 310 309 308 299 300 298 294 287 289 298 295 300 299 299 300 298 298 296 294 290 287 284 289 284 284 284 286 285 284 283 287 289 291 295 297 297 298 300 302 303
309 309 310 310 310 309 306 302 302 302 294 285 287 294 296 297 297 297 298 297 295 293 290 289 286 288 288 287 283 283 287 285 281 281 288 288 290 294 295 295 296 298 299 300
310 310 311 310 310 309 301 293 296 300 302 292 284 293 292 295 296 295 294 295 294 294 291 290 290 293 289 284 282 288 290 291 291 288 292 292 293 294 295 295 296 298 298 300
310 310 310 310 309 304 297 292 294 304 302 290 283 281 291 294 293 292 293 293 292 294 292 290 290 289 290 286 282 288 290 291 291 292 291 289 291 291 295 295 296 298 300 300
310 310 309 308 308 306 300 302 305 305 298 295 285 284 286 293 287 286 293 291 293 293 290 290 288 289 288 281 286 287 289 290 290 291 292 292 293 294 294 296 296 296 297 298
309 308 307 302 301 297 297 305 304 300 295 287 284 282 280 293 290 292 291 292 286 289 287 287 288 285 282 285 286 287 289 289 290 292 292 292 291 292 294 294 295 293 294 295
307 302 296 289 295 304 301 294 290 292 290 287 284 288 283 287 287 286 287 287 285 282 283 289 285 283 289 290 290 290 291 292 293 290 289 289 289 289 291 292 294 295 295 295
296 291 290 295 301 293 293 288 284 286 281 287 285 285 285 289 285 285 287 284 283 278 280 280 279 279 285 288 289 292 293 293 292 292 291 291 291 291 290 291 293 294 294 294
296 296 298 296 291 288 285 283 285 279 282 287 286 284 285 285 290 287 287 284 285 278 283 282 277 282 288 290 292 292 293 292 290 290 290 290 290 291 291 292 292 294 295 294
298 292 290 288 284 277 280 273 277 277 284 285 285 283 288 286 288 285 285 282 280 283 276 278 280 285 290 292 293 291 292 291 291 291 290 290 289 291 292 292 294 294 294 294
286 286 276 282 279 283 280 281 281 285 284 285 287 285 285 284 285 284 281 283 280 272 271 275 283 288 290 289 289 289 290 291 291 290 289 287 287 289 292 293 293 293 293 293
286 287 278 279 282 284 285 285 285 287 291 286 282 283 285 282 283 283 282 278 273 276 275 282 289 290 289 287 289 290 291 291 290 289 286 286 289 290 291 291 292 292 293 293
287 286 283 283 281 281 282 283 283 287 286 285 283 283 281 280 280 278 277 277 277 280 286 289 290 289 289 286 289 290 291 290 290 288 287 289 289 289 289 290 291 292 293 292
286 284 288 286 285 284 285 286 286 290 287 283 282 277 276 281 279 275 278 276 281 285 287 289 288 288 289 289 290 291 291 289 288 285 288 289 289 289 289 287 289 290 291 291

GFSNW_sfc_thetae_006.txt.gz
Theta_e
315 315 314 315 315 312 305 296 293 307 309 296 292 290 295 301 299 300 300 299 299 295 294 294 293 293 296 304 302 297 300 296 289 292 297 298 297 294 294 288 285 283 287 288
314 314 315 315 314 312 303 293 292 301 304 287 288 292 294 296 293 292 294 295 298 296 294 290 296 297 303 304 300 296 299 293 288 290 293 293 291 293 294 293 292 288 285 289
314 314 315 314 314 313 300 292 287 292 292 291 287 286 287 288 293 291 292 290 293 289 287 291 289 291 297 296 299 304 300 293 292 286 288 288 287 287 292 289 287 289 289 291
313 314 314 315 313 312 299 292 288 290 284 285 286 286 286 285 286 290 290 288 289 287 284 285 286 288 289 293 296 298 296 287 289 289 290 290 288 287 286 286 287 283 288 291
312 313 314 314 313 310 296 289 288 290 287 287 285 286 283 286 288 288 287 286 289 288 284 286 284 287 288 287 292 291 292 284 288 285 288 287 284 287 289 288 287 289 293 292
312 312 312 313 312 306 294 295 295 292 289 285 283 284 286 288 289 290 291 289 288 287 289 290 292 292 292 290 288 287 287 285 281 278 285 285 280 285 287 289 291 291 287 293
311 311 311 312 312 307 299 296 297 292 283 286 286 289 289 288 289 287 291 291 288 291 294 293 292 290 290 290 289 290 286 285 283 279 281 274 286 292 292 290 291 295 295 295
310 310 309 310 312 311 300 299 295 289 283 286 287 288 288 289 289 288 289 292 294 292 291 286 282 282 282 285 288 288 288 288 283 280 277 283 286 290 293 291 290 294 292 293
310 310 310 309 310 310 300 298 299 294 289 286 290 289 288 286 285 287 289 293 294 293 288 283 274 276 279 278 282 288 287 289 283 278 270 271 283 291 297 296 283 294 295 293
310 309 309 309 310 310 302 298 300 298 290 292 291 287 287 290 289 287 289 290 289 290 286 281 279 277 282 276 277 278 280 281 279 280 278 282 290 293 295 281 285 295 296 294
308 308 308 310 310 310 302 298 301 297 291 292 294 294 291 289 289 286 289 288 287 286 283 282 278 277 280 279 282 279 280 279 278 280 277 272 294 290 284 288 294 296 295 295
307 308 308 309 309 310 308 296 300 301 296 292 297 297 298 296 295 291 290 288 288 290 285 284 284 280 278 279 276 283 277 282 280 281 279 287 290 291 294 294 291 294 294 296
308 309 309 309 309 310 308 297 297 298 291 289 290 289 295 299 299 300 289 290 292 291 293 289 287 282 280 279 280 280 283 287 284 284 287 289 291 292 292 292 292 295 297 296
308 309 309 309 310 310 309 301 298 298 294 286 288 295 292 296 297 298 298 295 296 294 292 289 286 283 287 281 283 282 285 285 284 284 287 289 290 290 290 292 293 294 295 295
308 309 309 310 310 310 307 303 303 302 294 283 286 294 296 296 295 295 295 294 293 291 289 288 285 289 288 286 286 284 287 286 283 282 288 287 287 291 292 292 292 293 293 294
309 310 310 310 310 309 302 293 294 299 302 292 284 290 290 293 293 292 292 293 293 292 289 289 291 293 289 283 281 287 289 290 290 287 291 290 291 292 293 291 292 293 294 295
309 310 310 309 309 302 297 291 293 303 301 292 285 280 287 292 292 289 289 291 289 291 290 289 289 290 290 285 281 288 290 291 291 290 290 288 290 289 292 293 293 295 295 296
309 309 309 308 308 306 300 302 305 305 297 294 285 283 283 290 286 286 294 289 290 292 290 290 288 290 288 282 286 288 289 288 287 288 290 290 292 292 292 293 293 293 293 294
309 308 307 301 297 293 296 305 305 302 295 286 285 282 279 288 286 289 290 291 285 290 287 288 287 284 281 285 285 287 288 287 288 291 292 293 292 291 291 290 290 290 291 292
308 300 293 288 295 303 300 293 292 292 291 289 284 288 282 286 286 286 287 288 284 282 284 287 285 283 286 288 289 290 290 293 292 289 288 289 289 289 289 289 290 291 291 292
295 290 288 295 300 291 292 287 285 285 283 285 285 284 284 286 284 284 288 283 282 278 279 280 278 278 283 287 289 292 293 292 292 291 291 289 289 289 288 288 289 290 291 292
295 295 297 296 290 287 282 280 282 279 277 286 284 283 283 284 288 286 286 284 284 277 282 281 276 280 287 290 291 291 291 290 290 291 290 291 291 290 288 287 287 289 292 293
296 292 290 287 284 278 278 270 274 274 282 283 282 282 284 285 287 285 284 280 277 280 278 278 279 284 289 290 291 291 290 290 289 289 290 291 290 289 287 286 288 291 291 291
288 285 280 281 278 279 278 278 280 283 283 287 288 284 283 283 284 284 280 280 281 275 272 275 284 288 290 291 291 289 288 289 289 289 290 289 289 286 288 289 290 290 290 291
287 286 279 279 282 281 282 283 282 285 286 284 281 280 282 281 282 283 282 278 275 274 274 280 287 289 289 286 287 287 288 288 290 289 288 288 287 288 288 289 289 289 290 292
288 286 283 284 281 279 279 280 281 287 288 287 282 283 281 279 280 278 275 273 272 280 284 286 287 286 286 286 287 287 288 291 289 287 287 287 288 288 288 288 288 289 291 292
284 284 288 286 284 280 281 282 284 289 286 280 281 277 276 280 279 277 276 278 282 284 285 286 286 285 285 286 286 287 290 288 286 285 284 287 289 288 288 285 286 287 289 290

GFSNW_sfc_thetae_012.txt.gz
Theta_e
313 313 313 314 314 311 302 294 291 301 301 292 288 288 290 295 291 291 290 291 291 288 288 285 287 289 292 294 292 290 294 291 284 286 292 296 294 292 291 284 282 282 281 282
313 313 313 314 312 309 296 290 289 296 298 285 281 284 286 291 288 288 288 287 290 288 285 281 286 287 292 292 290 287 291 284 277 279 282 288 286 290 290 287 285 280 278 281
313 312 313 313 312 310 295 289 281 286 288 286 282 281 281 284 289 289 289 287 289 286 284 286 283 285 290 291 291 297 294 285 282 277 280 285 282 284 285 283 278 278 280 283
312 312 312 312 312 308 294 289 285 286 280 282 282 282 283 282 283 288 288 285 286 284 281 282 282 285 286 289 293 291 287 280 282 283 284 284 283 282 283 281 281 278 281 282
310 311 311 311 311 306 294 287 284 286 283 284 280 283 279 283 286 286 284 282 286 286 281 283 281 284 285 285 287 286 286 281 283 280 283 282 280 282 283 283 283 282 283 283
310 311 311 311 310 303 292 291 291 286 284 282 279 280 282 286 286 286 288 286 285 284 286 288 289 291 289 288 285 284 283 280 276 275 281 280 276 281 283 284 286 285 281 286
309 309 310 310 310 304 295 293 291 284 280 283 283 286 287 285 285 284 287 288 284 288 293 292 290 287 287 287 287 287 282 281 281 276 277 268 279 286 286 285 286 289 288 288
309 308 309 309 310 307 297 295 292 286 281 284 285 285 285 285 286 285 286 288 290 290 287 282 280 279 280 281 284 284 285 280 276 272 271 277 280 285 284 282 282 290 288 289
308 309 308 309 310 306 297 295 295 293 284 282 287 285 285 282 281 283 286 290 291 287 285 282 271 273 275 276 280 284 284 283 279 275 272 269 279 285 288 289 278 289 289 288
307 307 306 307 309 308 299 295 297 294 284 287 287 284 283 287 284 284 285 286 285 286 280 279 276 273 280 275 277 276 277 276 275 275 272 275 283 286 290 276 278 289 289 289
307 307 307 307 308 309 302 299 299 292 288 287 290 290 286 287 285 284 284 285 283 282 280 278 275 272 278 277 278 277 274 272 272 273 273 270 287 287 282 286 290 290 289 290
307 307 307 307 308 309 305 299 302 302 295 292 294 296 296 293 293 288 288 284 283 286 284 282 282 277 276 277 274 281 275 280 276 279 278 285 288 288 291 291 289 289 289 290
308 308 307 308 309 309 306 302 300 299 295 293 287 287 293 296 296 296 285 286 290 288 291 287 285 280 279 277 278 278 281 286 281 281 284 285 288 291 292 291 290 291 291 291
307 307 307 308 309 310 309 301 301 300 295 288 287 293 290 293 294 294 294 292 291 290 289 287 285 281 285 280 281 280 283 284 283 283 285 287 287 290 291 291 292 291 292 291
307 306 307 308 310 310 304 298 298 300 295 285 286 292 293 292 292 291 292 291 289 286 287 286 284 287 286 285 285 283 287 284 282 280 287 287 288 291 292 290 289 290 290 290
306 306 307 309 309 307 296 288 292 301 302 291 282 288 289 290 290 290 290 290 288 286 288 287 288 288 287 282 278 285 288 291 291 287 290 289 289 290 290 289 290 291 292 292
306 308 309 309 309 299 296 289 292 301 300 291 284 284 286 287 289 288 287 287 286 288 288 287 287 287 289 285 281 288 288 288 289 288 288 286 287 287 290 291 292 293 292 292
306 308 309 308 308 305 299 302 304 304 297 294 284 281 281 286 283 282 285 284 285 288 289 290 287 289 287 281 284 286 287 287 288 289 291 291 291 289 289 290 291 289 289 289
307 308 307 300 298 294 296 305 305 303 295 285 284 277 273 284 282 283 283 286 284 287 286 287 287 285 281 283 283 286 289 288 289 291 291 291 288 288 288 288 288 288 288 289
307 299 294 287 295 302 300 295 291 292 293 291 283 285 280 282 277 277 277 281 283 280 280 284 284 281 284 286 290 291 291 291 291 288 286 286 285 286 286 287 289 289 288 288
296 291 289 294 299 292 289 283 286 287 284 287 287 286 283 284 282 279 281 282 283 278 277 277 280 279 281 290 291 292 291 291 291 290 289 287 286 286 287 287 289 288 288 287
295 294 296 293 288 285 284 283 282 283 278 281 282 284 285 283 283 286 284 282 281 273 280 280 276 279 286 289 289 288 288 288 287 287 286 286 287 287 288 289 287 287 287 287
296 292 288 286 285 280 279 276 277 278 281 283 286 281 283 286 286 285 283 279 276 280 274 277 277 284 287 287 287 286 287 286 286 285 286 286 287 289 289 286 286 287 287 288
288 285 279 280 278 280 280 279 281 282 283 284 285 282 281 284 283 283 278 279 280 274 274 272 279 285 285 286 286 284 284 284 284 285 285 286 288 287 287 287 287 288 287 288
285 284 278 279 282 282 282 282 283 284 286 283 281 280 281 281 281 280 277 277 272 274 273 278 282 284 284 283 283 284 285 285 285 286 286 288 287 286 286 288 288 288 287 287
286 284 281 282 281 280 281 282 282 285 285 283 282 276 277 278 278 277 274 272 273 273 281 283 284 282 283 284 285 285 285 285 286 287 287 286 286 287 287 288 287 286 286 285
285 283 286 284 282 281 282 283 282 286 284 279 279 276 274 278 274 273 275 277 278 282 282 283 283 283 284 285 286 286 287 287 286 285 286 286 288 288 287 285 285 286 286 286

GFSNW_sfc_thetae_018.txt.gz
Theta_e
313 313 313 313 313 310 309 308 297 304 307 301 299 296 295 296 292 295 294 295 293 291 289 286 287 289 291 293 293 288 291 287 282 285 290 291 290 289 287 281 279 282 281 280
313 312 313 312 312 308 306 299 298 303 302 291 289 290 291 292 292 292 291 290 292 292 288 284 287 289 293 293 291 288 290 286 280 283 288 291 286 287 287 286 286 279 277 280
312 312 312 312 311 307 304 298 293 295 297 295 291 288 287 287 294 291 292 291 292 288 286 289 286 287 290 292 291 294 293 287 284 280 282 286 283 284 286 285 280 281 281 282
312 312 312 311 310 307 304 298 292 292 289 290 290 290 288 287 287 291 291 289 289 287 284 285 284 288 288 290 292 292 290 283 285 286 286 285 284 284 284 283 284 280 283 283
311 312 312 311 309 306 301 295 294 294 292 291 289 289 287 287 288 288 286 287 288 288 284 285 283 286 287 287 289 288 290 282 284 281 284 284 282 284 285 285 285 284 284 284
310 311 311 310 308 307 300 300 300 295 288 289 288 288 288 288 288 289 291 289 288 287 288 291 292 293 292 291 288 287 287 284 281 277 283 283 279 284 284 285 286 285 282 287
309 309 310 310 309 307 304 301 299 293 287 290 289 289 289 288 288 287 290 291 288 291 295 294 293 291 290 290 289 291 286 284 282 278 281 273 284 289 288 286 286 288 288 290
309 308 309 309 309 306 305 304 301 295 289 290 289 288 288 289 290 289 289 291 293 295 292 287 284 286 285 286 288 289 290 287 281 278 278 282 283 286 286 284 284 290 289 290
308 309 308 309 309 307 306 304 305 300 293 289 291 290 290 289 289 289 289 293 295 293 290 287 278 279 281 280 283 289 289 289 283 281 275 273 283 288 291 290 281 291 291 290
307 307 308 308 308 306 306 303 304 300 295 294 293 290 290 292 290 289 289 290 290 292 288 284 282 281 284 279 279 281 283 284 280 280 277 281 288 289 291 279 282 291 292 292
307 307 307 307 308 307 307 303 306 300 295 294 294 294 292 292 291 288 290 289 289 289 284 284 284 282 284 282 284 282 281 280 279 280 277 275 290 289 282 288 293 292 292 293
308 307 306 307 307 308 308 303 306 306 298 296 298 298 299 298 296 293 292 290 289 291 288 287 287 282 284 283 279 287 280 284 282 283 282 290 292 291 294 295 291 293 293 294
308 308 307 307 308 308 308 305 303 302 297 296 295 295 300 301 300 301 291 292 293 292 295 292 289 282 286 280 282 284 287 290 285 284 287 289 291 293 294 294 294 294 295 294
308 308 308 307 308 308 308 304 305 302 297 290 292 298 296 301 301 300 299 296 296 296 296 289 286 284 289 284 286 285 287 288 285 285 288 290 292 293 293 294 294 294 294 293
309 309 308 307 308 308 309 308 306 304 297 289 291 297 298 298 298 297 298 296 294 292 288 286 284 288 287 288 287 284 289 287 284 284 290 289 290 293 294 292 292 293 292 293
310 309 308 308 308 307 304 298 300 305 303 294 285 296 294 296 296 295 295 295 294 291 288 287 289 292 288 284 283 288 291 293 293 289 292 291 292 293 294 292 292 293 293 293
309 309 308 307 308 306 300 295 299 304 305 294 287 288 294 294 294 295 294 295 293 291 288 287 288 289 290 285 282 289 291 293 293 293 292 290 292 290 293 293 293 294 292 292
310 309 307 307 307 306 301 303 304 305 300 297 286 286 288 293 291 291 295 292 290 290 289 291 288 290 288 283 289 291 292 292 292 291 291 290 291 291 291 291 291 289 289 289
309 307 306 304 302 297 300 305 305 307 299 288 287 283 284 292 290 291 291 292 285 292 287 287 289 285 282 287 289 290 291 290 288 290 290 289 288 288 288 288 288 287 287 288
307 303 297 293 299 304 303 298 295 293 294 293 286 291 286 290 288 288 287 288 286 281 286 291 284 284 290 291 292 290 289 290 289 286 285 286 285 285 286 286 288 288 288 289
301 296 293 298 303 298 293 288 287 288 285 289 289 288 286 290 286 287 289 286 286 278 284 283 282 282 287 289 289 290 290 289 288 288 288 287 287 286 286 287 288 289 289 288
300 297 299 296 293 290 286 284 286 284 283 288 286 287 289 288 291 288 286 282 283 278 286 281 279 286 289 289 288 289 289 288 288 289 288 288 288 288 287 288 287 288 289 288
298 294 291 289 287 282 279 277 281 283 287 287 286 284 288 287 289 287 284 279 280 287 281 279 283 288 289 288 288 287 289 288 288 287 288 288 288 289 287 287 288 288 288 288
290 286 282 283 281 283 284 284 286 288 288 287 288 285 285 287 284 284 279 283 284 278 276 278 286 288 287 287 287 287 286 287 286 287 287 287 287 287 288 288 288 287 286 287
287 287 281 283 287 287 288 289 287 287 290 289 287 286 287 283 283 284 282 279 277 279 279 286 288 287 286 286 287 287 286 286 287 287 287 287 287 287 287 288 288 288 287 287
288 287 284 286 285 285 285 286 287 289 290 289 288 283 281 281 282 279 278 277 276 281 286 288 288 286 286 287 287 287 287 287 287 287 287 287 287 287 287 288 287 288 287 286
285 284 289 287 287 287 286 287 288 291 288 285 285 279 279 283 279 278 282 280 285 287 287 289 287 286 287 288 288 288 287 287 287 287 287 287 287 287 286 285 286 287 288 287

GFSNW_sfc_thetae_021.txt.gz
Theta_e
313 314 314 313 312 310 310 312 301 305 309 304 304 300 296 296 293 296 296 296 294 292 291 288 289 290 293 295 295 289 292 288 283 287 293 293 291 289 288 283 282 284 283 282
313 313 313 312 311 309 310 303 301 306 306 296 294 295 292 294 293 293 292 292 293 292 290 286 289 290 296 295 292 290 291 287 282 287 290 292 289 291 289 288 288 281 278 280
312 312 312 311 311 310 308 303 299 300 301 299 295 292 290 290 295 292 293 292 293 290 289 291 288 289 292 294 292 294 293 287 284 281 285 289 285 287 288 286 282 282 282 283
312 312 312 311 310 311 308 303 296 296 295 293 294 294 291 289 289 293 293 291 290 288 286 288 287 290 290 292 293 292 291 285 287 288 288 287 286 285 286 284 285 281 283 283
312 312 312 311 310 309 305 300 299 298 294 293 293 291 290 290 289 290 288 288 290 290 287 288 286 288 289 288 291 290 291 284 286 283 286 286 283 286 286 286 286 285 285 284
310 311 311 310 309 309 303 303 301 300 290 292 293 292 291 290 290 291 292 291 289 289 291 293 293 294 293 292 290 289 288 287 284 279 285 284 280 285 286 286 287 286 282 287
310 309 311 311 309 308 305 303 302 298 292 294 293 291 291 290 290 289 291 293 290 293 297 295 295 293 292 292 291 292 288 286 285 280 283 275 286 291 290 287 288 289 289 290
309 309 310 310 309 308 306 306 303 298 293 295 292 291 291 292 292 291 291 293 294 297 293 289 287 288 287 289 291 291 291 287 283 279 279 283 285 288 287 285 285 290 289 291
309 309 309 310 309 308 308 305 307 302 296 293 294 292 292 292 292 291 292 295 297 295 292 289 281 283 284 283 285 291 290 289 285 282 277 274 284 289 292 291 281 291 291 290
308 308 309 309 309 309 308 305 307 303 298 297 296 293 292 295 293 291 292 292 292 294 290 287 285 284 286 281 281 282 284 285 282 282 280 282 289 291 292 279 282 292 293 292
308 308 308 308 309 309 309 305 307 303 298 299 297 297 294 295 294 291 293 291 291 291 287 287 287 285 286 284 286 284 282 281 281 282 279 276 291 290 284 289 293 293 293 294
308 308 307 307 308 309 309 305 307 307 301 299 301 300 301 299 298 295 295 293 291 294 290 290 290 286 286 285 280 289 282 286 284 284 284 291 293 291 295 296 293 294 293 294
308 308 308 307 308 309 308 305 306 304 299 299 298 297 301 302 301 302 294 295 295 294 297 293 291 285 288 283 284 285 288 291 286 287 289 290 291 293 295 296 294 295 295 294
310 309 308 308 308 308 308 304 305 304 299 292 296 301 297 303 302 300 300 298 298 297 297 291 289 285 291 286 287 286 288 289 286 286 289 291 292 294 294 294 295 294 294 294
311 309 309 308 308 308 309 309 308 306 298 293 294 298 299 300 300 299 300 298 296 293 289 288 286 290 288 289 288 286 290 288 286 285 290 291 291 294 294 293 293 293 293 293
310 309 310 308 308 307 306 298 305 306 304 294 288 298 296 297 298 297 297 298 296 293 289 287 289 292 289 285 283 289 291 293 293 291 294 294 294 295 295 292 293 293 293 293
311 310 310 308 308 307 301 298 302 306 305 295 290 290 296 297 296 297 296 297 294 292 289 287 289 289 291 287 283 289 292 293 294 295 294 290 292 289 293 293 293 292 292 291
311 309 308 307 307 306 302 306 305 307 301 298 288 288 290 295 292 292 297 292 292 290 289 290 289 290 290 283 289 291 293 294 294 293 294 292 292 291 290 291 291 288 288 289
310 309 307 305 303 299 300 306 306 307 299 289 288 284 286 293 294 295 293 294 286 293 286 287 289 286 283 287 290 291 293 291 290 291 290 290 289 288 288 288 288 287 288 289
309 303 298 293 300 306 305 300 295 294 295 295 287 292 288 291 291 290 291 290 287 282 288 291 286 284 290 292 293 293 292 292 291 287 286 287 285 287 287 287 289 288 288 289
301 295 293 300 304 299 295 290 289 289 286 289 289 290 287 293 287 288 291 288 288 281 285 284 284 283 288 293 292 293 292 291 290 290 289 288 288 287 286 287 288 288 288 288
300 299 299 296 293 290 287 285 288 285 285 291 288 288 290 290 294 289 288 285 286 279 288 283 280 287 292 292 291 291 291 290 290 290 288 288 288 288 288 287 287 288 288 288
299 294 290 289 287 283 281 280 282 284 288 290 288 286 288 289 292 288 286 280 280 288 282 280 285 290 292 292 291 290 291 290 289 288 289 288 288 288 287 287 288 289 288 288
288 285 283 284 283 285 288 288 290 292 291 290 290 287 287 289 285 286 280 284 285 279 278 281 288 291 292 291 290 289 289 288 287 287 287 287 287 287 288 287 288 288 287 288
285 287 283 284 290 293 292 294 292 292 293 290 287 287 288 284 283 284 284 280 278 279 280 287 291 292 290 289 289 289 289 288 287 287 287 287 287 287 287 288 288 287 288 288
286 287 287 291 290 290 290 291 290 292 292 292 291 286 284 283 284 281 279 279 277 283 288 292 292 290 289 289 290 289 289 288 288 288 288 287 287 286 286 287 288 288 288 288
284 287 292 294 293 292 291 291 290 294 290 286 287 282 282 287 282 280 283 281 285 289 291 292 291 290 290 290 290 289 288 288 288 288 288 287 288 287 286 285 286 289 289 289

GFSNW_sfc_thetae_024.txt.gz
Theta_e
313 314 314 314 313 311 311 312 302 307 309 302 303 298 298 296 294 296 296 296 294 292 291 289 289 291 294 296 294 288 291 286 281 285 292 293 290 287 287 282 280 281 278 279
313 313 313 313 312 310 309 304 303 309 307 295 293 295 293 295 293 293 294 293 293 292 290 287 290 290 296 296 292 289 290 285 279 284 289 291 289 290 290 287 285 280 276 278
312 312 312 312 312 312 310 304 299 301 301 300 296 293 291 290 295 293 294 293 293 291 289 291 288 289 294 295 292 294 292 285 282 278 282 287 284 286 287 285 279 279 280 281
312 312 312 311 311 311 310 303 296 298 294 293 294 294 292 291 290 293 293 291 291 288 286 288 288 290 291 293 295 292 291 283 285 286 287 286 285 284 285 283 283 279 281 282
312 312 312 311 310 310 306 301 299 299 295 294 294 292 291 291 290 291 290 288 291 290 287 288 286 288 288 288 292 290 291 283 285 283 286 286 283 285 285 285 285 284 284 283
311 312 311 310 309 310 304 304 303 300 291 294 293 292 292 291 291 291 293 291 289 289 291 292 292 292 292 291 289 288 287 285 282 277 284 283 279 284 285 285 286 285 280 285
310 311 311 311 309 308 306 304 304 299 293 294 293 292 292 291 291 290 292 293 290 294 297 295 293 292 291 290 290 291 286 285 284 279 281 272 285 289 289 286 287 288 287 289
310 310 310 310 311 309 306 306 304 299 295 295 292 292 292 292 292 290 291 293 295 296 293 288 287 287 287 289 290 290 289 285 280 276 277 281 284 287 286 284 283 289 288 290
309 310 310 310 311 310 309 305 307 303 297 294 295 292 293 291 291 291 292 295 297 295 290 289 280 282 283 282 284 290 290 288 283 280 274 271 283 289 292 290 278 290 289 289
309 309 309 309 310 311 308 305 307 304 298 298 296 293 293 295 294 291 292 292 291 294 289 286 285 283 287 280 281 281 282 283 279 280 277 281 288 290 291 276 279 289 289 290
308 308 308 308 309 311 308 306 307 302 298 299 297 298 295 294 294 289 292 290 290 289 286 287 287 285 285 283 285 282 281 279 279 280 276 274 291 289 282 286 290 291 291 292
308 308 307 307 308 309 309 303 307 306 300 299 302 301 301 299 299 294 294 292 292 292 289 289 290 285 286 283 279 288 280 284 281 282 281 289 291 289 292 292 291 292 291 292
310 309 308 307 307 308 308 304 306 304 299 298 298 297 301 302 301 301 292 294 296 293 296 291 291 285 287 281 282 284 286 289 284 284 286 288 290 292 293 293 292 293 293 293
311 309 309 308 307 308 308 304 306 303 298 291 296 301 298 302 301 300 299 297 298 297 295 291 289 285 289 284 285 284 286 287 284 284 287 289 290 291 293 292 293 293 293 293
312 310 309 308 307 306 307 306 307 307 297 291 293 298 299 299 300 298 298 297 295 293 290 289 286 288 288 288 287 284 288 285 283 282 288 287 289 292 293 291 291 291 290 290
312 311 310 309 308 308 305 298 306 307 305 294 287 299 296 297 298 297 296 296 295 294 291 288 289 291 288 282 281 287 289 291 290 287 292 291 292 293 292 291 290 290 288 288
312 311 309 310 309 305 300 296 301 306 304 294 289 290 295 297 296 295 294 296 295 293 289 287 288 288 290 285 280 287 290 291 292 292 292 289 290 288 290 289 289 290 289 289
312 311 309 309 308 306 300 304 305 306 300 297 287 287 290 295 290 289 295 292 291 290 289 289 287 289 288 281 286 289 291 291 292 291 291 289 289 289 288 289 288 287 287 288
311 310 308 304 301 297 301 307 306 305 298 288 286 283 286 293 291 292 292 292 285 291 285 286 287 285 282 286 288 289 290 289 289 290 289 288 287 286 287 287 286 285 286 286
310 304 297 292 299 306 305 299 295 294 294 293 287 290 287 290 290 289 289 289 286 283 286 289 284 283 289 289 291 292 292 291 290 286 285 285 285 285 286 286 287 286 286 287
302 295 293 300 305 298 295 289 288 289 285 289 289 289 287 292 287 287 290 286 286 280 283 283 282 281 286 290 291 292 291 290 288 288 288 287 287 286 286 286 286 287 286 286
300 297 298 297 293 290 286 285 287 286 284 289 287 288 290 290 293 289 289 284 285 278 287 282 278 284 289 291 291 291 290 288 288 288 287 288 287 287 287 286 286 286 287 287
298 294 289 287 287 282 281 279 283 283 288 290 289 286 288 289 290 288 286 280 280 286 280 279 282 288 291 291 291 289 288 288 287 287 288 288 287 288 287 286 287 287 286 287
287 284 281 284 281 283 285 286 288 290 291 290 289 286 286 289 285 286 280 283 283 278 276 278 284 289 290 291 289 287 287 287 286 286 287 287 287 287 287 287 287 286 285 286
285 284 282 282 289 290 292 293 293 294 293 290 288 287 287 284 283 285 283 280 276 278 278 284 288 290 291 288 287 287 286 286 286 287 287 287 287 286 286 287 287 286 287 286
285 284 285 289 289 289 292 292 291 293 291 290 290 285 283 282 283 281 278 278 276 281 284 288 291 290 288 287 287 287 287 286 286 287 287 287 287 286 286 287 287 286 288 286
284 284 289 291 292 291 292 293 291 294 289 285 286 281 281 286 281 279 282 280 283 287 288 289 291 289 288 288 288 288 287 286 287 287 287 287 288 287 286 285 286 287 287 286

GFSNW_sfc_thetae_027.txt.gz
Theta_e
313 314 315 314 314 311 307 301 292 299 299 293 291 288 293 296 294 295 294 293 291 288 288 286 286 289 290 294 292 286 286 282 277 281 288 291 287 283 283 275 276 277 272 276
313 313 314 314 313 310 299 291 291 298 297 285 285 289 292 293 293 292 292 291 291 290 287 283 287 290 295 294 290 286 286 279 273 279 285 288 285 286 286 283 280 274 271 278
313 313 313 313 312 312 302 294 290 292 291 289 287 286 287 288 293 291 292 290 291 288 286 287 285 287 294 293 291 296 290 282 277 273 278 283 281 284 285 281 270 277 278 280
313 313 313 313 312 312 301 293 287 290 284 286 286 286 288 288 288 290 289 288 288 286 282 284 285 288 288 292 295 291 287 280 282 284 285 285 284 283 284 281 281 276 280 281
313 313 312 312 311 310 295 292 289 289 286 287 286 287 284 288 287 287 287 286 289 287 283 285 283 286 284 284 288 286 286 279 282 280 284 284 282 284 284 283 283 283 283 281
311 312 312 311 310 307 295 295 295 291 289 286 285 284 287 289 289 289 291 289 286 286 288 289 288 287 287 286 284 284 283 280 277 272 282 281 276 282 283 283 284 283 279 283
311 311 312 312 311 308 297 296 296 290 285 287 287 290 290 288 288 287 290 289 286 290 292 290 289 286 287 287 286 287 282 281 278 273 277 267 281 287 286 285 286 286 286 286
310 310 310 311 311 310 299 298 296 291 285 288 288 289 288 288 287 287 289 290 290 291 288 284 282 282 283 286 287 286 285 281 274 270 270 278 282 285 284 282 281 287 286 287
310 310 309 310 311 310 301 299 299 294 289 286 291 288 288 285 283 286 289 291 291 290 286 284 274 276 279 279 282 288 286 284 278 275 266 265 279 287 289 287 277 287 287 287
309 309 309 309 311 311 302 298 300 296 289 291 289 287 287 289 286 284 287 288 287 289 283 279 276 277 283 276 277 277 278 277 277 277 270 276 285 288 289 273 277 287 288 288
308 309 309 308 309 311 303 298 301 296 291 293 294 295 289 289 287 284 287 285 285 284 279 278 279 276 281 278 280 279 277 273 273 275 270 271 288 286 279 284 288 288 289 289
310 308 308 308 308 310 309 296 302 301 294 294 299 299 298 295 294 289 288 287 286 287 283 282 279 278 277 278 274 283 277 281 276 278 277 285 287 286 289 289 288 288 289 290
311 310 307 308 307 309 307 298 299 297 292 291 293 293 297 298 297 296 288 288 291 289 290 285 282 277 280 275 277 280 282 285 280 280 282 284 287 290 290 291 289 290 291 290
312 311 309 308 308 308 307 298 301 296 293 287 290 298 295 298 297 297 295 294 294 292 289 284 279 277 284 278 281 280 283 283 281 280 284 285 287 288 289 290 290 290 290 288
313 312 311 309 308 306 303 303 302 302 293 288 290 295 296 296 296 295 295 294 291 287 284 281 280 284 281 281 282 281 285 283 278 279 284 283 284 289 291 289 288 287 286 286
314 313 312 310 308 308 303 296 301 303 300 292 282 293 292 295 296 295 294 294 292 289 285 283 285 287 282 271 276 284 286 288 289 285 287 287 289 290 289 286 286 287 287 287
314 312 311 310 309 304 298 295 298 304 299 290 285 286 292 295 294 293 292 293 291 289 286 285 285 286 287 284 279 284 287 288 289 290 287 284 286 284 286 287 287 288 287 287
313 313 311 309 309 305 298 301 305 304 295 293 279 282 287 293 288 287 292 289 290 289 287 288 285 286 286 279 285 287 288 288 287 289 288 285 284 285 286 287 287 286 286 286
312 312 309 305 301 296 298 306 306 303 296 285 284 280 276 289 288 290 289 290 283 289 283 285 286 284 280 284 286 286 288 286 287 287 285 284 284 283 284 284 286 285 285 286
310 305 298 293 297 307 304 299 294 293 293 293 286 285 280 285 284 281 285 287 284 281 284 285 283 281 287 288 289 289 288 289 288 283 282 281 280 282 283 284 286 286 286 285
302 295 293 299 306 298 294 289 287 288 285 289 289 288 283 287 284 284 288 284 282 276 279 279 277 277 284 288 288 290 289 288 286 286 285 284 282 283 285 286 286 286 286 285
299 298 299 297 293 289 285 284 285 285 283 286 287 285 289 288 291 287 287 282 283 277 282 276 275 280 286 286 287 287 287 287 286 286 285 284 285 285 287 286 286 286 286 286
299 293 286 286 285 281 281 277 280 281 283 286 286 284 287 288 288 286 285 281 280 282 273 276 279 284 287 287 287 286 286 287 286 285 285 285 285 288 287 286 286 286 286 286
288 284 280 282 280 282 280 279 283 284 284 287 287 285 285 286 285 285 280 282 280 274 271 275 281 284 287 287 287 286 285 286 285 284 285 284 285 287 287 287 286 286 285 286
286 283 279 281 284 284 284 286 285 286 290 288 285 283 284 283 282 283 282 279 272 274 275 281 283 284 287 286 285 284 284 285 284 284 284 285 287 286 286 287 287 286 286 285
286 285 281 285 282 283 285 284 285 287 289 286 284 282 280 280 281 279 277 274 273 278 283 284 285 285 286 285 285 285 285 284 284 284 285 286 286 286 286 287 286 286 286 284
283 283 286 287 286 286 286 289 288 292 288 281 283 280 280 283 280 276 278 276 279 285 284 284 286 286 285 284 284 284 285 284 283 283 284 287 288 287 286 285 286 287 287 284

GFSNW_sfc_thetae_030.txt.gz
Theta_e
314 315 315 315 314 312 306 296 287 296 298 291 286 286 291 296 292 293 292 291 289 286 286 284 285 288 289 293 290 285 285 281 277 279 285 289 285 282 281 275 275 276 272 275
313 314 315 315 313 310 297 289 289 295 295 285 283 287 290 291 291 290 291 290 290 288 285 281 285 289 294 292 289 284 284 278 273 276 283 286 283 284 284 282 278 273 271 277
313 313 314 314 313 313 298 293 289 291 288 286 286 284 286 286 292 290 290 289 289 286 284 286 284 287 292 292 290 296 289 280 276 274 277 281 280 282 283 281 270 276 278 280
313 313 313 314 313 312 296 289 286 288 283 285 284 284 287 286 286 288 288 287 287 284 281 283 283 286 287 290 294 289 285 279 280 282 283 283 283 282 283 280 281 276 280 280
313 313 313 313 311 308 294 291 287 287 284 285 284 286 283 287 286 286 285 285 288 285 282 283 282 285 283 283 287 286 285 278 280 278 283 282 281 283 283 283 283 282 282 281
311 312 312 312 311 304 293 293 294 289 288 283 284 284 285 288 287 287 289 288 285 284 286 288 287 286 286 285 284 283 282 280 276 272 280 279 275 280 282 282 283 282 278 283
311 311 312 313 311 305 296 294 293 289 284 286 287 288 289 287 287 287 289 288 284 289 290 289 287 285 286 285 285 286 281 280 277 272 276 268 279 285 285 283 285 285 285 285
310 310 310 311 312 310 297 296 294 290 284 286 287 288 287 286 286 286 288 289 289 290 287 283 281 281 282 284 285 284 284 280 274 269 270 277 280 284 283 281 281 286 285 286
310 310 310 310 311 311 297 296 297 292 287 286 290 287 287 283 282 284 287 289 289 288 285 283 273 275 279 278 281 285 284 282 277 274 266 266 278 285 288 285 276 285 285 285
309 309 310 309 310 311 299 296 298 293 289 291 288 286 286 287 285 283 285 287 286 288 281 279 276 277 282 276 277 277 278 277 276 275 268 275 283 286 287 274 276 285 286 286
310 309 309 309 309 310 301 297 299 293 289 291 293 294 289 288 286 283 285 285 284 282 279 277 278 275 280 277 279 279 277 273 273 274 269 271 287 285 280 282 285 287 287 287
312 309 308 308 308 309 304 295 301 300 291 289 298 298 296 294 292 288 286 285 285 285 280 279 277 278 276 278 275 281 277 280 276 277 277 284 286 285 287 288 287 287 286 287
313 311 309 307 308 308 305 296 297 294 290 290 291 292 297 297 296 295 287 286 289 287 288 284 280 277 279 275 277 278 283 284 280 280 282 284 286 287 288 289 288 289 288 287
314 312 311 308 308 307 305 296 298 295 291 286 290 296 293 296 295 296 296 293 293 291 288 284 279 278 283 277 280 279 284 283 280 280 283 284 285 286 288 289 289 287 286 286
315 314 312 311 309 307 301 297 299 299 291 286 288 292 295 295 295 294 294 294 290 288 286 283 281 283 282 280 281 278 286 283 279 280 284 283 283 286 289 287 285 285 285 285
314 314 313 312 310 307 301 296 299 301 297 288 280 290 290 292 293 294 293 292 290 289 287 285 286 288 285 277 274 284 288 288 287 285 285 285 286 289 286 284 285 286 286 286
312 313 313 311 310 304 298 295 298 304 299 290 282 281 289 291 291 290 290 291 290 290 287 285 284 284 286 275 278 286 287 287 287 287 284 283 286 283 284 285 286 287 286 286
311 312 311 310 309 305 299 299 304 303 297 294 284 281 284 290 285 284 289 286 289 289 287 287 285 286 285 280 285 287 287 287 287 287 286 286 285 284 284 285 285 284 284 285
310 310 309 307 302 297 298 305 306 301 295 286 285 282 275 287 285 286 286 286 279 286 281 285 284 279 279 285 285 286 286 286 286 286 286 284 283 282 282 282 283 282 284 285
308 304 299 294 298 306 304 298 294 294 294 293 286 285 278 284 280 277 281 279 277 280 283 285 283 280 286 288 288 289 287 288 287 284 282 282 281 281 281 281 284 285 285 285
297 296 294 299 306 298 294 289 288 288 285 289 289 288 282 286 283 284 286 282 283 276 278 279 276 276 283 288 288 289 289 288 287 286 284 284 283 282 282 283 284 285 286 285
296 297 299 298 294 289 285 284 286 284 282 286 287 287 289 287 290 287 287 283 282 275 281 277 275 279 285 285 286 286 287 287 285 285 284 284 284 284 283 283 284 286 286 286
297 293 288 286 285 280 281 276 280 281 283 286 287 284 288 288 289 287 285 281 278 281 277 276 279 285 285 285 286 285 285 285 285 284 284 285 284 285 285 285 286 286 285 286
290 285 279 278 280 281 281 279 280 284 284 286 286 283 285 286 285 285 282 282 280 272 271 274 281 285 284 286 285 284 284 284 284 284 284 284 284 284 285 287 286 286 285 286
286 284 278 276 282 282 282 282 283 286 287 288 286 285 285 284 283 284 281 278 273 274 274 279 285 284 283 284 285 284 283 283 283 283 283 283 284 284 285 287 287 286 286 285
287 284 281 282 281 283 282 282 282 286 288 287 286 284 281 281 281 279 276 274 273 277 281 286 286 283 283 285 287 286 283 283 283 283 283 284 284 283 286 287 286 286 286 285
283 283 286 284 284 285 283 284 285 290 288 284 284 280 280 283 279 275 277 275 279 284 285 288 286 284 285 285 285 284 283 283 282 282 283 283 285 285 286 285 286 287 287 286

GFSNW_sfc_thetae_033.txt.gz
Theta_e
314 315 315 315 315 311 305 293 287 294 297 291 284 286 289 295 291 292 291 289 288 285 285 282 284 286 288 291 288 283 284 280 276 279 284 286 283 280 280 275 274 274 271 274
314 314 315 315 314 310 294 288 288 294 294 284 282 286 289 290 290 288 289 288 288 287 284 280 284 287 292 291 287 284 283 277 273 276 282 284 282 283 283 280 277 272 271 275
313 313 314 314 313 312 296 291 288 289 287 284 285 283 284 285 290 289 289 287 288 285 283 284 283 286 291 291 289 295 288 278 276 276 277 280 278 281 282 280 270 274 277 280
313 313 314 314 312 311 295 288 286 287 283 284 283 284 286 284 284 287 287 285 286 284 280 282 282 286 288 289 293 288 284 277 279 280 281 281 281 281 282 279 278 275 278 278
313 313 313 313 311 307 293 290 287 285 283 283 282 285 283 286 285 284 284 283 286 283 281 282 281 284 282 283 286 285 283 277 279 278 281 281 280 282 282 282 282 281 281 281
312 312 312 312 311 303 293 292 292 289 287 282 283 283 284 287 286 286 288 287 285 283 285 287 285 285 285 284 285 282 281 279 276 271 278 278 275 279 281 281 282 282 278 283
311 311 312 312 311 303 295 293 291 288 284 285 286 287 288 286 286 285 287 286 284 287 289 288 286 284 285 284 284 285 280 279 277 271 275 269 280 283 284 283 283 284 284 285
311 311 311 311 312 307 296 294 292 288 283 285 286 287 287 286 284 285 287 287 287 289 286 281 280 280 280 283 284 282 283 280 273 269 269 276 280 282 282 280 280 285 284 284
310 311 311 310 311 310 296 294 295 290 286 286 288 286 286 283 281 283 286 288 288 288 284 282 272 275 278 278 279 283 282 281 276 274 266 267 278 284 286 284 276 284 284 284
311 310 310 310 310 311 298 296 296 292 287 290 287 286 285 286 284 283 284 286 285 286 281 278 275 277 281 276 277 277 277 277 275 274 268 275 283 285 286 274 276 285 285 285
312 310 309 309 309 310 300 296 298 291 287 289 293 292 288 287 285 283 285 284 283 281 279 277 278 275 279 276 278 278 277 274 273 274 269 271 286 284 280 282 283 286 286 286
313 311 309 308 309 309 302 293 300 298 290 290 296 296 295 292 291 287 285 284 284 284 280 279 277 278 275 278 275 280 277 282 276 278 278 284 285 284 285 286 286 286 286 286
314 312 310 307 308 308 303 295 296 293 289 290 290 292 295 297 295 294 286 285 288 286 287 283 280 277 279 276 277 277 282 285 279 282 282 284 285 286 286 288 287 288 287 285
315 314 312 310 308 307 303 294 296 293 290 285 290 296 293 295 294 294 293 291 291 289 288 286 282 281 285 278 281 279 284 284 282 281 283 284 285 285 286 288 288 285 285 285
311 314 314 312 310 308 300 296 296 297 290 284 287 291 294 294 293 293 293 292 289 286 284 281 279 283 284 283 279 276 284 282 282 281 284 283 282 285 289 287 285 284 284 284
309 311 313 313 310 306 299 291 296 299 295 289 281 288 290 291 291 291 291 290 288 286 285 282 283 286 285 273 273 281 286 289 290 285 285 285 285 286 287 284 284 285 285 285
309 311 311 312 310 303 297 293 296 303 299 290 283 281 288 290 290 289 288 289 287 286 284 282 282 283 284 272 272 285 287 288 287 286 285 283 286 285 284 285 285 286 285 285
308 309 310 310 309 305 299 299 304 302 297 293 281 281 283 288 284 284 287 284 285 285 284 284 282 283 281 274 283 285 286 286 285 285 285 285 285 283 284 285 284 283 283 283
308 308 308 304 303 298 298 305 305 301 295 286 285 282 275 286 283 284 284 284 280 284 282 284 283 279 278 283 286 287 286 285 286 286 285 283 282 282 283 282 282 281 282 283
307 301 297 290 297 305 303 298 294 293 294 292 286 285 282 283 278 277 281 280 276 280 282 286 283 281 286 286 288 289 288 287 286 284 282 280 280 281 281 281 283 283 283 283
296 294 292 299 305 298 294 289 287 288 285 288 289 288 286 285 284 283 284 283 284 277 278 279 279 278 281 288 288 290 289 287 287 288 286 284 283 282 282 282 283 283 283 283
296 296 299 299 294 289 286 285 287 285 283 286 287 286 289 288 289 286 286 284 282 276 279 280 276 280 284 287 286 286 286 286 286 286 284 283 283 283 283 282 282 283 284 285
298 293 289 287 286 280 280 278 280 281 286 283 286 284 287 288 287 287 285 282 279 281 279 277 279 282 287 286 285 286 285 285 284 283 284 284 283 284 283 283 284 284 285 286
290 285 281 280 277 281 280 278 279 283 282 284 285 284 285 287 285 286 283 283 281 274 274 274 280 284 284 286 287 285 283 283 283 283 283 283 283 283 284 284 284 286 285 286
286 285 278 277 281 280 281 282 281 283 285 286 284 286 286 284 283 285 283 277 273 274 274 279 284 285 285 285 286 285 282 282 282 282 282 282 283 282 283 284 284 286 286 285
286 284 282 281 278 280 279 280 281 284 285 284 284 280 280 279 282 280 275 273 272 276 280 284 287 286 288 288 286 284 283 282 282 282 283 283 282 282 283 284 284 286 286 285
283 283 286 282 281 281 280 282 283 287 285 280 284 280 279 282 276 278 280 275 279 283 285 287 289 290 293 291 285 285 283 283 282 282 282 283 283 283 283 282 284 286 287 286

GFSNW_sfc_thetae_036.txt.gz
Theta_e
314 315 315 315 314 312 303 291 288 293 296 291 283 286 288 294 290 292 290 288 287 285 284 281 283 285 287 290 287 281 282 278 275 278 282 284 282 279 280 276 274 273 271 274
314 314 315 314 313 309 293 287 287 294 293 284 282 284 288 289 289 287 288 286 287 286 283 280 284 286 291 289 286 283 282 277 274 277 280 283 280 282 281 278 276 272 271 275
313 313 314 314 312 310 294 290 286 288 286 283 285 283 283 284 289 287 288 286 286 284 282 283 282 285 290 289 288 295 287 277 277 277 277 279 279 280 281 279 271 274 276 279
313 313 313 313 311 310 294 288 286 286 283 283 282 283 284 283 283 286 286 284 285 283 279 281 281 285 286 288 293 286 283 277 277 279 280 279 279 279 280 278 278 276 280 277
313 313 313 313 310 306 292 288 286 284 282 282 283 284 283 285 284 283 282 283 285 282 280 282 281 283 282 283 285 284 282 277 278 277 280 279 279 281 281 281 281 280 281 280
312 312 312 312 309 303 292 291 290 288 285 282 283 282 283 286 286 285 286 285 284 282 284 285 284 284 284 283 284 282 280 278 275 271 277 277 275 278 280 280 281 281 277 282
312 312 312 312 311 302 295 292 289 288 283 283 285 286 287 285 284 283 286 285 283 286 288 287 286 284 284 283 283 284 279 278 277 271 274 269 280 282 283 282 283 284 284 284
312 311 311 311 311 305 295 293 291 287 284 284 285 286 285 284 284 284 285 286 286 288 286 280 279 280 280 281 282 282 282 279 273 269 269 276 280 281 281 280 280 285 284 285
312 311 311 310 311 308 296 294 293 289 287 287 287 286 284 283 281 282 285 287 287 287 284 281 272 275 277 278 278 282 281 280 276 273 265 268 279 283 285 283 276 283 284 283
313 311 310 310 310 310 298 295 295 290 287 288 286 285 285 285 283 282 283 284 284 285 280 278 275 276 280 276 276 276 276 276 274 273 268 275 282 284 285 274 280 283 284 283
313 311 310 309 309 309 299 296 297 291 287 289 291 291 286 285 285 283 284 284 283 281 278 277 277 275 280 276 278 278 277 274 273 273 269 271 285 283 280 283 282 284 284 285
313 312 310 309 309 308 300 293 298 297 290 293 294 295 294 291 290 286 284 284 283 284 280 278 277 278 275 278 275 278 276 281 276 277 277 284 287 285 285 285 284 285 285 286
314 313 311 308 308 307 302 294 294 293 290 291 290 291 294 296 294 293 286 284 287 285 285 281 279 276 279 275 276 277 280 283 279 279 282 285 287 287 286 287 286 287 287 285
311 314 313 311 308 307 302 294 294 292 289 285 289 295 292 293 293 292 291 290 289 288 286 282 276 276 283 277 280 279 282 282 280 279 284 285 286 285 285 287 288 287 285 284
309 310 312 313 310 308 299 295 294 295 291 285 286 291 292 292 292 292 292 291 288 285 283 279 278 281 280 279 278 275 282 281 279 283 289 285 283 284 287 287 287 285 283 283
308 309 310 312 311 306 296 290 295 298 294 288 282 289 289 291 291 291 290 289 287 285 283 281 282 284 282 271 273 281 284 288 290 288 284 284 284 285 286 286 284 285 284 284
307 309 310 309 310 301 295 292 295 301 295 287 280 280 287 288 288 287 287 287 285 285 283 281 281 282 284 271 270 285 284 287 287 288 284 282 284 284 286 284 285 287 285 284
308 308 308 308 308 305 300 298 303 301 294 290 281 280 282 287 283 282 285 283 284 284 283 283 282 282 279 274 280 286 288 287 285 286 285 286 284 284 283 284 284 283 282 282
307 307 307 304 302 297 296 305 305 300 295 280 284 281 277 285 282 282 283 283 280 283 280 282 282 281 278 281 284 287 288 285 286 285 285 283 283 282 282 282 282 281 281 282
305 298 293 291 298 304 301 296 294 294 294 292 286 284 277 283 278 279 279 282 279 280 283 284 283 282 287 287 287 288 289 287 286 283 282 280 279 280 281 281 282 282 282 282
295 292 292 299 305 298 294 289 287 288 285 288 288 288 283 285 284 284 285 282 280 278 278 281 280 278 285 286 288 291 289 288 287 288 287 285 283 282 281 281 282 283 282 282
295 294 299 299 292 289 286 284 288 285 283 287 287 287 286 287 288 285 286 283 281 274 279 280 276 281 284 285 286 286 286 285 285 286 285 284 284 283 282 282 282 282 283 283
295 291 289 288 286 280 279 278 282 282 285 285 286 282 284 286 286 286 285 282 278 281 278 276 278 282 286 287 287 287 286 286 286 285 284 284 283 283 283 282 283 283 283 284
288 286 280 281 279 281 281 279 280 283 282 282 283 282 283 287 285 285 282 284 281 274 274 273 279 282 284 290 288 287 287 286 286 284 284 283 282 282 283 283 283 283 283 284
287 285 279 280 282 279 281 282 281 282 284 285 285 286 286 283 283 283 282 279 271 274 274 279 283 285 289 291 291 290 289 286 284 284 283 283 282 282 282 283 283 283 284 285
288 286 282 281 278 278 278 280 280 283 284 282 282 281 281 281 279 279 278 275 271 276 278 282 286 286 289 289 291 293 287 284 283 283 283 282 282 282 282 283 283 283 284 285
283 282 287 281 280 280 279 281 282 285 284 277 281 279 277 277 279 278 277 275 278 283 282 285 288 287 289 290 289 289 288 284 282 282 283 283 283 283 282 281 282 283 284 286

GFSNW_sfc_thetae_039.txt.gz
Theta_e
314 314 315 314 313 311 301 290 289 294 297 292 285 287 289 294 290 292 291 290 289 288 286 284 285 287 289 291 289 285 286 281 280 283 285 287 286 284 285 283 279 278 278 280
314 314 314 313 313 307 293 288 288 294 294 286 284 286 288 290 289 288 289 288 288 288 285 283 286 288 292 290 288 285 286 281 280 283 284 287 284 284 282 282 281 278 279 283
313 313 314 313 311 305 294 289 286 288 286 284 286 285 285 285 289 288 288 287 288 286 284 285 284 287 291 291 291 294 288 280 281 282 283 283 282 283 283 283 279 280 281 285
313 313 314 313 310 309 295 288 286 285 284 284 283 284 284 283 284 287 287 285 286 284 282 283 283 287 288 290 295 288 286 281 280 280 281 281 281 281 282 281 283 281 285 282
312 313 313 312 309 305 291 288 286 284 283 283 283 286 284 284 285 285 284 284 286 284 282 283 282 285 286 285 288 287 284 281 281 279 281 281 280 283 282 282 283 281 283 283
312 313 312 312 308 302 292 290 289 289 284 282 283 284 285 287 286 286 287 286 285 284 285 286 287 286 285 286 286 284 283 281 278 277 278 279 278 280 283 282 283 284 280 286
312 312 312 312 309 301 295 292 289 290 284 284 285 286 287 286 285 285 287 287 285 288 289 288 287 287 286 286 285 285 281 281 280 277 278 275 285 286 285 284 285 286 286 287
312 312 311 311 310 304 295 292 290 289 285 284 285 286 286 285 285 285 286 287 287 289 286 282 281 281 283 282 283 284 284 282 279 276 274 279 283 283 283 282 284 287 286 288
312 312 311 310 310 305 296 294 292 290 289 288 288 286 286 284 282 283 286 288 288 288 284 282 276 278 280 280 280 283 283 282 280 275 272 273 283 285 287 286 280 287 287 287
313 312 311 310 310 308 297 295 294 290 288 289 287 286 286 285 283 282 284 286 286 286 282 281 279 279 282 279 278 278 278 279 277 277 274 278 284 287 288 279 285 286 287 287
312 312 311 310 310 308 298 295 296 294 289 290 291 290 286 286 285 284 284 285 284 282 280 279 279 279 281 280 280 279 278 276 275 277 274 274 286 285 283 288 286 287 288 288
312 312 311 310 309 308 300 292 297 296 293 293 293 294 294 291 291 287 285 285 284 285 281 280 279 280 278 280 278 281 278 282 279 280 279 287 287 288 290 288 288 288 288 289
312 314 312 310 309 307 301 294 294 293 291 291 291 291 293 296 294 292 287 285 287 285 286 283 281 280 281 279 278 280 281 284 282 281 284 286 288 290 289 288 288 289 290 289
309 310 313 311 308 307 302 294 294 292 289 287 290 295 292 295 294 293 292 290 289 288 287 283 280 280 284 280 282 281 283 283 282 281 285 287 288 288 289 288 289 289 289 287
307 308 309 311 310 307 297 294 294 294 291 285 287 291 291 292 292 292 292 290 288 286 284 281 281 283 283 280 280 277 283 285 282 285 289 287 288 288 288 287 288 289 287 285
307 308 308 309 311 305 296 291 295 297 294 288 282 288 288 290 291 290 289 289 287 286 284 283 283 285 284 275 276 282 286 289 290 288 289 287 287 287 289 288 289 287 286 286
307 307 308 308 310 301 295 291 295 300 294 287 281 280 287 288 288 287 287 287 286 286 284 282 282 283 285 276 280 286 289 291 288 289 288 286 286 288 287 288 287 289 287 286
307 307 307 307 308 305 298 298 304 299 293 289 281 281 282 286 283 283 285 284 284 284 284 283 282 283 281 278 284 287 289 288 287 287 287 289 287 286 286 286 285 285 284 284
306 306 306 303 301 295 295 304 304 301 294 278 285 280 275 285 281 282 283 283 280 283 281 282 283 282 278 283 283 286 289 287 288 288 287 285 284 285 284 284 284 283 283 283
304 298 293 290 297 304 302 297 294 294 294 292 285 284 280 282 278 282 278 282 276 280 283 284 283 281 285 288 289 289 290 290 289 286 285 284 282 283 283 283 284 284 284 284
293 289 288 295 304 297 294 288 288 288 285 289 288 287 285 286 283 282 284 278 280 279 279 281 281 278 282 286 286 288 288 287 286 287 288 287 286 285 283 283 284 284 284 284
294 293 296 297 292 289 286 284 288 285 282 286 287 287 288 287 289 286 286 282 281 277 281 280 277 280 284 285 286 287 288 287 286 287 286 286 286 286 285 284 284 284 284 284
295 291 288 287 285 280 279 276 281 282 286 285 285 283 284 284 286 286 285 281 280 280 278 276 278 282 284 285 288 290 292 290 288 288 287 286 286 285 285 284 284 284 284 285
287 282 280 281 279 280 279 278 280 284 284 283 285 281 281 284 284 285 281 284 281 276 275 275 280 282 285 286 288 290 290 289 289 288 286 286 285 285 285 285 285 284 284 285
286 285 279 281 283 279 279 281 281 283 284 284 282 285 285 283 282 283 282 279 272 274 274 277 282 284 285 286 288 288 289 289 287 286 284 284 284 284 284 284 284 284 285 284
288 286 283 282 281 279 278 281 281 284 284 283 283 283 281 281 281 279 278 277 274 277 279 283 284 284 286 287 287 288 289 288 286 285 285 284 284 283 284 284 284 284 284 284
284 283 287 282 281 280 280 281 282 285 284 280 282 279 278 279 277 277 277 276 282 284 284 284 284 285 286 288 287 288 288 288 285 284 284 284 285 284 283 282 283 284 285 284

GFSNW_sfc_thetae_042.txt.gz
Theta_e
315 315 315 314 313 311 311 306 300 303 306 303 300 300 295 296 294 296 295 296 295 294 292 291 291 291 293 294 293 289 290 289 288 289 290 291 291 290 292 288 287 288 286 288
314 314 314 313 312 307 308 303 301 304 304 299 298 294 293 294 293 293 293 292 293 293 291 289 290 292 294 292 291 290 291 289 288 288 289 291 289 290 289 289 289 287 286 290
314 314 314 312 309 306 307 301 297 300 300 297 297 294 292 291 293 293 293 292 292 291 290 290 289 291 292 293 293 293 292 289 289 289 289 290 288 288 289 289 287 288 288 291
314 314 314 311 309 309 307 301 297 294 295 295 295 294 293 290 290 292 293 291 291 290 288 289 289 291 292 292 296 292 292 288 287 289 288 286 286 287 288 286 289 286 290 290
314 313 313 311 309 305 304 301 298 295 293 292 294 292 291 290 290 291 290 289 291 290 289 290 289 291 292 291 293 292 291 288 287 286 286 286 285 288 288 288 288 288 289 288
313 313 312 311 308 306 305 300 298 301 290 292 294 294 292 292 293 291 292 291 291 290 290 292 292 293 292 293 292 292 289 288 286 285 284 284 284 288 289 289 290 289 287 293
313 313 313 312 308 306 307 303 302 303 294 294 294 292 292 291 291 291 291 293 292 293 296 294 294 293 291 292 291 292 288 287 287 284 285 282 290 292 290 289 291 292 291 292
313 312 312 311 308 306 305 303 303 304 296 295 292 292 292 292 292 291 291 292 293 296 293 290 287 288 288 287 288 289 290 289 285 283 283 287 291 289 288 286 289 294 292 294
313 313 313 312 310 305 306 302 301 303 301 297 295 294 293 293 292 291 291 293 295 295 293 290 289 289 287 286 285 288 288 289 286 283 280 281 290 289 291 290 286 294 293 293
313 313 312 311 311 307 307 304 302 303 301 297 296 296 295 294 292 294 292 292 292 293 291 289 289 289 287 286 285 284 285 285 283 284 282 286 292 291 291 284 290 294 293 293
312 313 312 311 310 308 306 303 305 303 303 299 296 295 294 293 295 296 292 292 291 291 289 290 290 288 289 287 288 286 287 285 284 284 281 280 292 290 287 295 295 293 294 294
313 313 312 311 310 308 303 303 304 302 305 301 298 299 299 297 297 297 293 294 293 296 293 291 292 289 289 290 286 289 285 290 290 288 288 294 294 295 297 296 294 295 294 295
311 312 312 310 309 307 305 303 303 304 303 301 301 298 299 302 300 298 296 295 296 294 295 295 294 289 292 288 288 289 289 291 287 288 293 293 295 297 297 297 295 296 296 295
308 309 311 311 309 307 306 304 303 302 299 296 296 300 297 299 300 299 297 296 295 295 296 294 294 291 292 290 290 289 290 289 290 291 294 294 295 297 297 297 296 294 294 294
307 308 309 310 309 305 305 305 303 302 299 295 296 297 296 298 298 297 297 296 296 295 293 292 291 293 291 292 288 288 292 291 289 289 295 294 294 296 297 294 294 295 294 293
306 307 308 308 310 305 305 299 304 305 303 298 293 296 293 295 296 295 295 296 296 296 294 294 293 291 292 289 287 293 295 295 296 293 295 295 295 296 295 293 294 295 294 294
306 307 307 307 309 307 300 297 302 303 304 297 292 292 293 293 294 295 296 295 296 295 294 292 292 291 292 289 286 293 295 295 295 297 295 292 294 293 296 294 294 294 293 293
307 306 306 307 308 306 302 304 304 304 299 296 287 289 290 293 292 292 294 294 294 294 293 291 290 291 291 283 291 293 293 294 294 294 295 294 294 294 294 294 293 291 291 291
306 306 306 306 303 300 301 304 304 305 300 291 288 285 287 293 291 292 293 293 290 291 289 289 289 287 282 289 291 291 293 292 291 292 292 293 292 292 292 292 291 290 290 289
304 303 298 293 300 305 304 299 296 296 296 295 287 291 287 292 290 289 290 288 288 284 287 289 285 286 291 292 293 294 294 294 294 292 291 290 290 291 291 291 291 291 290 289
301 296 294 301 305 300 297 290 289 289 286 291 290 289 287 291 289 289 291 287 285 281 285 283 283 283 289 293 295 296 296 295 295 295 293 292 291 290 291 290 290 289 289 288
299 299 301 302 296 292 287 285 288 285 284 289 288 288 289 290 291 289 289 284 283 278 287 282 281 287 292 292 293 295 296 296 295 297 294 293 292 291 290 289 289 288 289 289
301 296 291 290 288 281 280 278 283 284 288 290 289 287 291 291 291 289 287 282 281 287 281 281 285 291 292 292 293 294 296 296 296 296 296 293 293 291 290 289 290 291 289 289
292 285 280 282 280 283 284 284 286 289 290 290 290 287 289 290 287 288 282 285 285 280 278 280 289 291 293 293 294 294 294 294 295 296 295 292 290 291 290 290 291 290 288 288
287 286 281 283 286 286 287 287 287 289 291 290 289 287 288 286 283 284 283 280 279 281 281 287 291 293 293 293 294 294 294 294 293 295 294 292 290 289 289 290 290 289 289 288
289 286 284 284 284 285 285 286 287 290 290 291 291 286 283 282 283 281 280 278 278 283 288 291 293 292 292 292 293 294 294 294 293 293 293 292 290 289 289 290 289 289 289 288
285 285 289 288 288 287 287 288 289 292 290 287 286 282 281 285 280 279 284 282 286 290 291 293 293 292 292 293 293 293 293 293 293 293 293 292 291 290 289 288 289 289 289 289

GFSNW_sfc_thetae_045.txt.gz
Theta_e
314 315 314 314 314 312 308 312 303 308 313 305 308 303 299 296 298 300 299 299 299 298 297 296 296 295 296 297 296 293 294 293 290 292 293 294 294 294 294 290 290 292 290 290
314 314 313 312 314 309 316 307 305 309 310 300 300 299 297 297 297 297 297 296 297 297 296 293 294 295 297 295 294 293 295 293 290 290 292 293 290 294 293 294 292 288 287 291
314 314 312 312 307 307 308 305 300 303 307 304 301 299 297 295 296 296 296 295 296 295 293 294 293 294 295 295 295 294 294 293 291 289 291 292 291 292 293 292 289 290 291 294
314 314 312 311 310 310 309 307 303 300 299 299 300 299 298 294 293 295 296 294 294 293 291 292 291 294 294 294 297 295 294 290 292 292 292 292 290 290 291 290 291 288 291 291
314 314 312 310 309 306 309 305 302 301 300 298 298 293 295 294 292 294 293 292 294 293 292 293 291 294 294 294 296 294 295 290 291 289 291 289 287 290 291 291 291 291 291 291
314 314 312 311 309 307 311 305 304 305 295 298 299 299 297 295 296 294 295 294 294 292 294 295 295 297 295 295 294 294 292 291 289 287 289 289 287 292 293 293 294 293 289 294
313 314 313 311 309 309 313 308 308 306 299 300 300 297 296 295 295 294 295 296 295 296 298 297 297 296 294 294 294 296 292 290 290 286 289 283 293 298 296 291 292 294 294 295
313 313 313 311 309 308 310 309 309 308 302 303 298 297 296 296 295 295 295 295 297 299 295 293 291 291 291 291 291 292 293 291 288 285 287 291 293 291 291 289 290 296 295 295
313 313 312 312 310 308 310 306 307 308 305 301 301 298 299 298 298 295 294 296 299 297 296 294 291 290 292 289 289 291 291 292 289 289 283 282 291 292 294 293 288 295 295 295
313 313 312 311 311 309 312 308 309 308 304 300 301 300 299 300 299 299 296 295 294 296 295 292 293 291 292 289 288 287 288 289 286 288 286 289 296 294 294 286 290 297 297 296
312 312 312 311 311 309 311 308 310 309 307 301 299 299 299 298 300 299 297 295 295 294 292 294 295 292 293 290 293 290 290 289 288 289 286 283 297 293 289 295 298 298 297 297
313 311 311 311 310 309 309 308 310 308 308 304 302 302 302 300 299 302 298 299 297 300 297 297 298 293 294 292 288 294 288 292 291 292 291 299 298 296 299 299 297 297 297 298
311 313 311 310 310 309 310 307 307 309 305 304 303 301 303 305 303 303 299 301 301 298 300 299 298 293 296 290 291 293 294 296 291 292 294 296 298 300 300 300 298 298 298 297
309 309 312 310 308 308 309 306 307 306 304 298 299 304 301 303 303 302 301 298 299 300 300 297 297 294 298 293 294 291 294 293 292 292 294 296 297 298 298 298 299 298 298 298
307 308 308 310 306 307 309 307 306 306 302 299 299 301 300 301 301 300 300 299 298 298 296 295 294 297 295 295 294 290 295 293 290 290 294 294 294 297 298 297 296 297 296 296
307 307 307 310 308 305 307 302 307 307 306 301 296 300 297 299 299 299 298 300 299 299 298 297 298 297 295 291 290 295 297 297 297 293 296 296 297 298 299 297 297 297 297 296
307 307 306 308 308 308 302 299 303 305 307 298 294 295 295 296 297 299 299 298 299 298 297 295 295 295 293 292 288 294 296 296 296 297 297 294 296 295 297 297 297 297 296 296
307 306 307 308 307 305 303 306 305 306 302 299 290 291 292 296 295 294 297 296 297 295 295 295 293 294 293 286 293 295 295 295 296 297 297 296 296 296 296 296 296 294 293 294
306 307 307 306 304 301 302 304 305 308 302 291 289 288 290 296 294 296 295 296 291 295 291 292 293 290 285 290 293 294 294 295 295 296 297 297 296 295 295 295 294 293 292 293
306 305 300 296 301 305 305 302 298 298 298 297 289 294 289 295 295 293 294 292 290 286 289 291 286 286 292 294 295 296 296 297 296 294 293 294 294 294 294 293 294 293 293 293
303 298 296 302 305 302 298 293 290 291 288 292 292 291 290 294 290 291 293 288 288 282 286 285 284 285 291 295 295 298 298 297 296 297 298 298 297 295 294 293 294 293 292 291
301 302 304 303 297 293 288 287 289 286 285 290 289 290 291 292 295 290 290 285 284 279 289 283 281 289 294 295 295 297 297 296 296 296 297 297 297 296 295 294 293 292 292 292
303 299 293 292 290 283 282 280 284 284 288 290 290 288 290 292 293 290 288 282 281 290 282 281 286 292 294 295 296 296 297 297 296 295 296 297 297 297 295 294 294 293 292 292
294 286 281 285 282 285 287 287 289 292 292 290 291 288 289 290 288 288 283 287 287 280 278 281 289 292 293 295 295 295 295 296 295 295 295 295 296 296 295 294 294 293 291 291
288 288 282 284 289 290 291 292 291 292 295 293 290 289 289 286 284 285 284 281 279 282 282 288 292 293 293 293 294 294 294 295 295 295 294 294 295 295 294 294 293 292 292 291
291 288 286 288 287 288 288 289 290 293 294 294 293 287 283 283 285 282 281 280 279 284 289 292 293 292 293 293 294 294 295 295 294 295 295 294 294 294 294 293 293 292 291 290
286 286 290 289 290 289 290 291 292 295 292 288 289 282 282 288 282 281 285 283 286 290 292 293 294 293 293 294 294 294 294 294 294 295 295 295 296 295 293 291 292 292 291 291

GFSNW_sfc_thetae_048.txt.gz
Theta_e
314 314 314 315 316 314 310 313 301 310 313 303 306 302 300 297 299 301 300 300 300 299 299 298 298 295 297 298 297 294 293 290 287 291 293 295 293 292 291 285 285 287 284 285
314 313 313 313 315 311 313 308 305 310 310 298 300 300 298 299 298 299 298 298 298 299 298 294 296 296 298 298 296 293 294 289 285 286 290 292 289 292 292 290 288 284 280 284
315 313 313 310 308 309 307 305 300 304 306 306 300 299 298 295 298 298 297 296 297 296 294 296 294 295 296 297 297 295 295 291 288 285 287 291 288 291 292 288 282 284 285 289
315 314 312 311 309 309 308 307 305 301 298 299 300 301 299 296 293 296 297 294 295 295 292 292 292 295 294 295 298 295 293 288 290 291 292 291 290 289 290 287 288 283 287 288
314 313 312 311 310 307 308 304 303 302 300 299 299 295 296 295 293 294 293 293 295 295 292 292 292 295 294 294 295 294 294 288 290 287 292 289 287 289 289 289 290 289 289 288
314 314 312 311 310 308 311 307 306 305 298 300 299 299 297 296 295 295 296 296 295 293 293 295 295 295 295 294 294 293 292 289 286 284 289 289 285 290 291 290 292 290 285 290
314 314 314 312 311 309 314 309 309 306 299 301 300 298 298 296 296 294 295 297 296 296 299 298 296 295 295 294 294 294 291 289 287 283 286 279 290 294 293 292 292 292 292 293
313 313 313 312 311 310 311 310 309 309 302 302 299 298 297 295 296 295 295 295 297 299 297 293 290 289 290 291 293 292 292 289 285 281 282 288 290 290 290 287 287 294 292 293
313 313 313 312 312 310 311 308 309 308 305 299 302 299 299 296 296 294 294 296 299 298 295 293 288 288 291 287 288 291 291 290 285 284 278 277 289 291 294 292 282 295 294 293
313 313 312 312 312 311 315 309 311 310 304 300 300 299 298 302 300 296 295 294 294 297 293 289 291 289 292 286 287 284 285 284 281 283 282 286 294 293 294 281 285 294 294 293
312 312 312 312 312 312 312 308 310 309 306 300 301 301 299 299 299 297 295 294 294 292 290 292 292 290 290 288 290 288 286 285 284 284 281 279 294 291 286 291 294 295 294 294
311 311 311 311 311 311 311 308 310 308 307 301 303 302 302 300 300 298 298 297 297 298 294 295 296 291 291 289 285 292 285 289 286 288 288 295 295 294 297 296 293 293 293 294
312 312 311 310 310 311 311 306 307 309 305 302 301 299 302 304 303 303 296 299 298 298 297 296 296 291 293 287 288 290 292 294 288 288 291 293 294 295 295 295 294 295 295 295
310 311 311 309 309 310 310 305 306 306 302 297 297 304 301 303 303 303 300 298 299 299 298 294 296 291 296 290 291 288 291 292 289 288 291 292 293 294 295 295 296 296 296 295
308 309 310 309 307 308 309 307 307 306 302 298 297 301 300 301 301 301 301 299 297 296 294 292 293 295 293 293 291 288 292 290 287 285 291 289 290 294 295 294 294 294 294 294
307 307 309 310 308 308 308 302 306 307 306 300 294 298 297 298 300 299 298 299 298 297 295 293 295 295 292 287 286 293 294 295 294 290 293 293 294 294 295 293 294 295 294 294
307 306 308 309 308 308 301 299 302 305 306 298 294 293 295 297 297 297 297 297 296 295 295 292 292 292 292 289 285 292 294 294 293 294 293 290 292 292 295 295 294 295 294 294
306 306 308 307 306 305 302 305 306 306 301 298 289 291 291 296 293 292 296 294 294 294 293 292 290 291 290 284 291 293 294 292 292 293 293 292 293 294 294 295 294 292 291 291
307 308 307 306 304 300 301 305 305 308 302 289 289 286 288 294 292 293 293 294 290 292 289 290 290 288 283 289 291 292 293 291 291 292 293 293 292 292 293 293 292 290 290 291
307 304 300 294 300 304 304 303 298 297 297 296 291 294 289 293 292 291 291 290 288 284 287 289 286 285 290 292 293 293 293 294 293 289 289 290 291 291 291 291 292 291 290 290
302 298 295 301 304 301 298 292 290 291 287 291 291 291 289 293 289 289 291 287 287 281 284 283 282 281 288 292 293 294 295 294 291 291 291 292 293 292 291 291 292 291 289 289
301 301 303 302 297 294 288 287 289 286 285 290 288 289 291 291 293 290 289 285 284 278 288 283 279 285 291 292 292 294 294 294 292 293 292 292 293 293 292 291 291 291 290 291
304 298 292 291 290 282 281 279 283 284 288 290 289 287 289 290 291 289 286 282 281 287 282 279 282 289 291 291 292 292 294 294 293 293 293 293 292 293 293 292 291 291 291 291
292 286 280 284 282 284 286 287 288 291 291 289 290 288 288 289 287 287 281 285 285 280 278 278 285 289 289 291 292 292 290 291 292 293 293 292 291 291 293 293 291 290 290 291
287 289 281 283 289 290 291 291 291 293 293 291 288 288 288 286 284 285 284 280 278 279 279 284 289 289 289 289 290 290 290 290 290 291 291 291 291 291 291 292 291 290 290 290
289 287 286 288 287 287 288 289 289 293 292 293 290 285 283 282 283 281 279 278 277 281 286 289 289 289 289 290 291 291 291 290 291 291 291 291 291 290 291 292 291 290 290 289
286 285 290 289 288 288 289 290 291 295 290 286 288 282 280 285 281 280 283 280 283 287 288 290 290 290 291 291 291 291 291 291 291 291 291 291 292 292 291 289 290 290 290 289

GFSNW_sfc_thetae_051.txt.gz
Theta_e
314 314 314 316 316 314 308 301 293 301 304 296 294 292 295 298 298 299 298 296 296 293 293 291 291 291 292 295 293 289 288 285 282 285 288 291 289 287 286 281 280 281 278 281
313 313 313 315 314 311 303 299 294 300 302 290 289 292 295 296 296 296 296 295 296 294 292 288 291 293 296 294 293 289 289 283 279 282 287 289 284 287 288 285 283 279 276 281
314 313 313 310 313 310 301 295 291 294 296 294 292 291 292 291 295 295 295 293 293 291 289 291 289 291 294 294 295 295 292 285 283 280 282 286 283 288 288 285 276 279 281 283
314 312 312 310 309 307 301 295 293 293 289 292 290 291 293 291 290 292 292 290 291 290 286 288 287 291 291 292 297 292 289 284 285 287 289 288 287 287 287 284 284 280 283 285
314 313 312 311 309 306 298 294 293 292 290 291 289 290 288 291 290 290 289 289 292 288 286 287 287 290 289 289 291 289 288 283 285 283 288 287 285 287 287 287 287 285 286 285
314 315 313 312 311 306 297 296 296 297 292 290 290 289 290 292 291 291 292 291 289 289 290 290 289 289 290 290 290 288 287 284 281 278 286 286 281 287 288 287 288 287 282 286
314 314 314 313 311 310 305 299 299 295 292 292 293 294 294 292 291 290 292 292 290 292 293 292 291 290 290 290 289 290 286 284 282 276 281 275 285 290 290 289 289 290 289 290
313 313 313 314 313 311 302 301 302 299 293 294 293 294 291 291 291 290 291 292 292 293 290 287 285 284 285 287 289 287 287 284 279 275 274 282 286 287 287 285 285 291 289 291
313 313 314 314 313 311 304 301 301 300 296 292 295 293 292 288 287 288 290 292 293 291 290 287 280 281 285 282 284 288 288 285 280 278 272 272 285 288 291 289 278 291 291 290
312 312 312 312 313 312 305 301 304 302 292 292 294 293 292 295 291 289 289 289 289 291 286 283 281 282 287 281 282 279 280 279 276 275 273 280 289 290 291 278 281 292 292 290
311 311 311 312 313 313 305 300 303 303 293 293 297 297 293 293 292 289 290 289 289 286 283 282 284 280 285 283 285 283 281 277 277 277 274 276 291 289 284 287 290 291 290 290
311 311 310 310 311 312 310 298 303 304 298 295 298 299 299 297 296 293 291 292 290 290 286 286 285 283 283 284 278 287 281 286 282 283 282 291 291 290 291 292 290 290 290 292
312 311 310 309 311 312 307 297 299 300 296 294 295 294 297 299 299 299 292 291 293 292 293 290 288 285 286 280 283 285 288 289 283 284 287 288 290 291 292 291 290 292 292 292
312 311 309 309 310 311 306 297 298 298 294 290 292 300 295 300 299 299 296 294 294 293 291 288 283 282 290 285 287 285 288 287 285 284 287 289 289 290 290 292 292 292 292 292
311 311 310 308 309 309 303 300 299 299 293 289 290 294 295 296 297 297 297 294 292 290 288 286 283 290 288 287 285 284 290 287 283 282 287 286 286 290 291 291 291 291 291 291
308 309 310 309 308 308 301 294 299 300 299 292 282 293 292 295 296 295 295 294 292 290 288 287 289 290 288 278 281 290 290 290 290 287 289 289 289 291 292 290 291 292 292 291
307 309 310 308 307 299 295 294 298 303 298 291 283 283 290 292 293 292 291 292 291 290 288 287 288 288 288 281 281 288 290 290 289 290 290 287 288 288 291 292 293 293 291 291
307 308 308 307 306 303 296 299 303 303 293 292 280 281 285 289 287 286 290 288 289 289 288 288 287 287 285 280 287 291 292 290 290 290 290 289 289 290 291 292 291 290 289 289
307 308 307 300 297 292 294 305 304 300 294 279 283 277 278 289 287 287 288 288 281 287 283 285 285 282 279 285 287 289 290 288 289 289 288 288 288 289 290 290 289 288 288 288
308 300 295 288 294 304 303 296 291 289 290 288 281 286 281 287 284 281 283 281 283 275 284 285 278 280 287 289 290 290 290 291 291 285 285 286 287 288 288 289 289 289 288 288
297 292 292 297 303 295 291 286 284 284 281 286 285 286 283 288 284 282 285 279 280 273 280 278 277 276 284 287 288 290 291 290 290 289 288 289 288 289 289 289 290 290 289 287
297 296 298 296 291 286 281 278 284 281 280 285 286 285 286 286 288 284 282 277 276 272 282 275 275 280 286 287 289 289 290 291 291 291 290 290 290 289 289 289 289 289 289 289
296 291 287 284 284 274 277 273 276 279 284 287 285 283 285 285 286 283 280 280 276 282 273 276 278 283 287 287 289 290 291 291 290 290 290 291 290 290 289 289 290 290 289 289
285 278 278 278 274 277 280 281 281 285 285 286 286 285 283 287 281 284 280 280 278 271 271 275 280 284 285 286 287 287 288 288 288 288 290 290 289 288 289 290 290 289 288 289
282 281 273 278 283 283 284 285 285 286 287 287 286 286 286 284 282 282 277 276 274 276 275 279 283 284 285 285 286 286 286 287 287 288 288 288 288 288 288 289 290 289 289 288
282 282 280 284 282 281 282 283 284 288 289 290 288 284 281 276 278 274 275 273 273 277 281 284 285 284 285 285 286 286 287 287 287 287 288 288 288 288 288 289 289 289 289 288
283 281 286 284 283 282 282 284 285 289 289 282 285 280 275 277 271 272 277 276 279 282 284 285 285 285 286 287 288 288 288 288 288 288 288 288 289 289 288 287 288 289 289 288

GFSNW_sfc_thetae_054.txt.gz
Theta_e
313 314 315 317 317 314 306 299 292 300 303 294 290 291 293 298 296 297 296 295 294 292 292 289 289 290 291 293 292 287 286 284 281 283 287 289 288 285 284 280 279 278 276 280
313 313 314 315 314 311 302 297 292 298 301 289 287 290 293 295 295 294 294 293 294 292 290 286 290 291 294 293 292 288 287 281 278 281 286 288 283 285 286 284 281 278 275 279
313 313 312 313 314 312 300 293 290 293 294 292 290 290 290 290 293 294 292 291 292 290 288 289 288 289 293 293 294 296 291 283 282 280 282 285 283 286 286 283 275 278 279 281
313 312 312 310 314 311 300 293 292 291 287 290 289 290 292 289 288 291 290 288 290 288 285 286 287 290 289 291 296 290 287 281 283 285 287 287 286 286 286 283 282 280 281 283
314 313 311 311 309 307 297 293 291 289 288 289 289 288 289 289 289 288 288 287 290 287 286 286 286 290 288 287 289 287 287 281 283 282 287 286 285 286 287 285 285 284 284 283
314 315 313 311 310 306 295 295 293 293 291 287 288 287 289 290 290 289 291 290 288 287 288 289 288 288 288 290 288 287 286 283 280 278 284 284 279 285 286 286 286 285 281 284
313 314 315 313 311 307 302 297 296 294 291 291 291 292 292 290 290 289 290 291 289 291 292 291 289 289 289 289 288 289 285 283 281 275 280 274 283 288 288 287 288 288 288 288
312 313 313 313 312 310 300 298 299 296 290 291 292 292 290 290 290 289 290 291 291 292 290 286 284 284 285 286 287 286 286 283 278 274 273 280 284 285 285 284 284 289 287 289
312 313 313 313 312 310 301 299 299 299 292 290 293 290 289 287 286 288 289 291 291 291 288 286 279 280 283 281 283 287 286 283 280 276 271 271 282 287 289 288 278 289 290 289
312 311 312 312 312 311 303 299 301 298 291 291 292 290 290 291 289 287 286 287 287 290 285 282 281 282 287 281 281 279 280 278 276 275 272 278 287 290 290 278 279 289 289 289
311 310 310 311 312 312 302 299 301 299 291 291 295 296 292 292 290 288 288 288 287 285 282 281 282 279 285 282 283 281 280 276 275 275 273 275 291 287 284 286 288 289 288 289
311 310 309 310 312 312 305 295 300 301 295 292 296 297 296 295 294 291 289 290 288 288 284 284 284 283 282 283 278 285 281 284 281 282 281 289 289 288 291 290 289 288 288 290
311 310 308 310 312 311 303 296 296 298 293 292 294 293 296 298 297 297 290 291 293 291 291 289 286 284 284 279 281 283 287 288 283 284 286 287 289 290 290 290 289 290 290 290
311 310 308 310 311 309 303 296 296 295 293 288 290 298 293 297 297 296 294 293 293 291 290 287 279 281 288 283 286 284 288 287 284 283 285 287 288 288 289 290 290 290 290 290
312 311 308 309 308 307 301 297 296 297 290 287 288 292 294 295 296 296 295 293 291 288 287 285 282 287 285 284 284 282 288 287 283 283 287 286 285 288 290 290 290 290 289 289
311 311 309 309 309 306 297 291 297 299 297 290 281 290 290 293 294 294 293 293 290 289 287 286 287 289 286 276 277 288 289 289 289 287 287 288 289 290 290 289 290 291 290 289
310 310 309 308 305 298 293 289 295 302 296 289 281 281 289 291 291 290 290 290 289 289 286 285 286 286 286 276 276 287 289 288 288 289 289 286 287 287 289 290 292 292 290 290
309 310 308 307 306 302 295 298 303 298 291 288 279 279 284 288 286 285 288 287 287 287 286 286 285 285 282 276 285 288 290 288 287 288 288 288 288 289 289 290 290 289 288 288
310 308 306 299 296 291 293 304 302 296 288 279 278 277 277 287 285 286 287 286 280 285 281 284 283 280 276 284 286 287 288 288 288 288 288 288 287 287 288 288 288 287 288 288
307 299 293 287 293 303 301 294 289 288 287 286 279 283 279 285 282 279 281 278 277 275 281 283 277 279 285 287 288 289 290 289 289 285 284 285 285 286 286 287 289 288 288 288
296 291 291 295 302 293 289 285 283 282 279 283 283 284 282 287 283 281 283 277 278 273 278 278 276 276 282 286 286 288 289 290 289 288 288 288 288 287 287 287 288 289 288 288
297 295 297 295 289 283 281 277 282 279 279 284 283 283 284 285 287 283 280 276 275 272 280 274 275 279 284 286 287 289 288 289 289 290 289 289 288 288 287 287 287 288 289 289
294 291 286 284 282 275 277 275 276 275 282 284 283 282 284 284 285 281 278 272 273 280 273 275 278 282 285 286 287 288 289 289 289 289 288 289 289 289 288 288 288 288 288 289
287 282 277 279 273 277 279 280 280 284 284 285 283 281 282 282 280 279 273 278 279 270 270 275 279 283 285 284 286 286 285 286 286 287 287 288 288 287 288 288 288 287 288 289
285 282 277 277 282 282 283 283 284 284 287 285 283 282 283 277 276 278 276 278 269 274 275 277 282 283 283 284 285 285 284 285 286 286 286 287 287 286 287 287 287 287 288 288
284 282 278 282 281 280 281 282 283 285 286 286 284 279 278 277 277 273 273 272 272 276 279 282 283 282 282 283 284 285 285 285 286 286 286 287 287 287 287 287 287 288 288 287
278 278 285 283 283 282 281 284 285 289 287 278 278 279 274 275 268 269 276 275 278 280 282 284 284 283 285 285 286 286 287 287 287 286 286 287 288 287 286 285 287 287 288 287

GFSNW_sfc_thetae_060.txt.gz
Theta_e
314 314 315 317 319 315 304 295 292 298 301 293 288 290 291 297 294 295 294 293 292 291 289 287 286 288 288 291 289 284 284 282 279 281 284 287 285 283 283 279 276 276 274 279
314 313 315 317 316 310 299 295 291 296 300 288 288 288 291 293 293 291 292 291 292 290 288 285 288 288 291 291 289 285 285 280 277 279 283 285 281 283 283 281 280 277 275 279
315 313 314 316 316 311 298 291 288 291 292 289 289 287 288 288 291 291 290 289 289 287 285 288 287 286 290 291 291 298 289 280 280 278 280 283 280 283 283 281 274 276 278 279
314 313 313 316 316 313 299 290 289 289 287 289 288 288 288 287 287 289 288 286 287 286 283 284 285 287 286 289 295 287 284 279 279 282 283 283 283 284 283 281 280 279 280 281
314 314 313 315 315 311 297 292 290 287 285 287 287 289 287 288 286 286 286 285 287 284 284 283 285 287 284 284 287 284 284 280 281 279 284 284 283 285 284 283 282 281 281 281
314 314 312 312 314 306 295 291 291 291 288 285 286 286 288 289 288 287 288 287 286 285 286 287 286 287 287 288 286 284 283 282 280 278 281 282 280 282 284 283 283 283 280 283
315 313 314 312 312 306 298 294 293 291 288 286 288 288 288 287 287 287 288 288 286 288 288 288 288 288 287 287 285 286 283 281 280 275 278 274 281 285 285 284 285 285 285 286
315 312 312 314 313 310 300 297 297 294 288 289 288 289 287 288 287 287 287 288 288 289 288 285 283 284 283 284 285 284 284 281 277 274 272 278 280 283 284 282 283 287 286 287
315 313 312 313 313 311 298 297 298 296 291 289 289 288 287 285 284 285 287 289 289 290 287 285 279 280 282 281 282 285 283 282 279 275 270 270 279 284 287 286 279 288 288 286
314 313 312 312 312 311 300 297 298 295 290 288 289 288 288 288 286 285 285 286 286 287 284 282 279 281 284 280 280 279 278 276 275 275 271 278 283 286 288 278 280 288 287 285
314 313 311 311 312 312 301 297 298 296 289 290 293 293 289 289 288 287 286 287 286 285 282 281 281 278 283 280 281 280 279 275 274 274 272 274 287 286 283 285 286 287 286 286
314 313 311 309 311 312 303 297 299 296 293 291 294 293 293 292 292 289 286 288 285 288 283 281 280 280 279 281 277 281 279 282 279 279 279 285 287 285 287 287 287 286 286 286
313 312 310 309 311 312 302 295 296 294 291 291 291 290 294 295 294 294 289 288 289 288 288 285 283 283 282 277 280 278 283 285 281 282 284 285 286 287 288 288 287 288 287 287
313 311 309 309 310 309 303 297 295 293 291 287 288 295 291 294 293 293 292 292 290 290 289 285 280 281 285 281 283 282 284 284 282 282 283 284 285 287 288 288 289 288 288 287
312 310 309 310 310 306 299 296 295 294 290 286 287 290 291 292 293 293 293 291 289 286 286 284 280 283 283 280 281 280 285 284 282 281 285 285 284 287 289 288 287 288 287 287
312 310 309 309 307 301 291 288 293 297 294 289 281 288 288 291 292 291 290 290 288 286 285 283 283 286 283 274 276 284 286 287 287 286 285 286 286 288 289 288 289 290 289 289
311 310 308 308 305 296 288 287 291 300 292 287 281 280 287 287 289 288 288 288 286 287 284 283 284 284 282 275 275 285 286 288 285 286 287 285 286 286 289 289 290 292 290 289
311 309 307 306 305 301 294 296 299 294 288 287 278 278 282 287 284 284 285 285 285 284 283 283 283 282 279 275 283 285 288 286 285 286 286 286 287 287 288 288 289 287 287 287
309 306 305 298 294 290 293 303 297 291 288 280 276 277 276 285 282 283 284 283 278 282 280 281 281 278 276 283 285 285 287 287 286 286 286 286 286 286 286 285 286 285 286 286
306 298 291 288 292 302 300 292 287 285 284 284 278 280 279 283 279 278 279 277 277 275 279 281 276 279 283 285 287 287 288 288 286 284 282 282 283 285 285 285 286 285 285 286
296 290 289 294 301 293 288 284 282 281 277 282 281 281 281 285 282 280 281 276 276 274 278 278 276 275 281 283 284 286 286 287 287 286 286 286 285 285 284 285 286 286 286 285
295 295 297 294 289 285 283 277 282 279 279 281 282 282 283 283 284 282 278 275 274 272 278 274 275 279 282 283 283 284 285 286 287 287 287 287 287 287 286 285 285 285 286 286
296 291 287 287 283 276 278 274 278 276 282 282 281 281 282 282 283 279 276 272 273 279 272 275 278 280 283 283 283 285 286 287 287 287 287 288 287 286 285 286 286 285 285 286
289 285 280 284 275 277 278 280 282 284 284 283 282 280 282 281 279 277 273 276 276 269 270 274 278 281 282 282 283 284 283 284 285 285 285 284 285 285 286 285 285 285 285 286
286 286 283 276 280 279 280 282 284 284 287 283 281 280 281 274 275 275 276 276 269 274 274 277 279 281 282 281 283 283 284 284 284 284 285 285 285 285 285 286 286 285 285 285
285 280 277 279 280 279 282 283 284 287 284 283 282 277 273 275 276 272 274 272 272 276 278 279 280 280 280 282 283 283 283 283 284 284 285 285 285 285 285 285 285 285 285 285
279 278 282 282 283 283 284 287 286 289 284 279 277 272 274 274 269 272 275 275 277 278 279 281 281 281 282 283 283 283 284 285 284 284 285 285 286 285 284 284 286 285 285 285

GFSNW_sfc_thetae_063.txt.gz
Theta_e
315 314 314 316 319 315 303 296 293 299 301 294 288 290 292 297 294 295 295 294 294 293 291 290 289 290 291 292 292 288 288 286 283 286 288 291 290 288 287 285 282 281 281 285
316 314 314 316 317 310 298 294 293 297 300 289 288 290 292 293 293 291 293 292 293 292 289 288 290 290 292 293 291 289 288 284 281 284 287 289 287 287 285 284 284 281 283 285
316 314 313 315 316 312 297 291 289 292 293 290 291 289 289 289 292 292 291 290 291 290 288 290 288 288 291 293 293 297 291 283 283 282 286 287 285 285 286 286 283 282 284 285
316 314 313 315 316 313 298 290 289 289 288 291 289 290 290 288 288 290 289 288 289 289 285 286 287 289 288 291 295 289 287 283 284 285 286 286 286 286 284 284 284 284 285 283
316 314 313 314 315 312 298 291 290 287 285 287 288 289 288 289 287 288 288 287 288 286 286 287 287 288 286 287 289 287 287 284 285 284 286 286 285 286 286 285 285 284 284 285
316 315 313 313 314 307 296 292 291 291 287 285 287 287 289 290 288 287 289 288 287 286 287 288 288 288 288 289 288 286 286 284 284 284 283 284 283 285 286 287 286 287 284 288
315 316 313 313 313 306 297 293 293 290 287 286 287 288 289 288 287 287 289 288 287 288 290 290 290 289 288 288 286 287 285 284 283 282 282 278 286 289 289 287 288 288 288 289
316 316 313 314 313 312 299 296 295 292 289 288 288 289 288 288 287 287 288 288 288 289 289 286 285 285 286 286 285 285 286 284 280 281 279 281 283 286 287 286 286 290 289 290
316 316 314 313 314 311 300 297 299 296 292 290 290 289 288 287 286 286 287 290 291 291 288 287 283 283 284 283 284 286 285 284 283 279 276 275 283 287 290 290 283 289 290 290
316 315 315 312 313 311 301 298 300 297 292 290 289 288 288 289 287 285 286 287 288 289 285 284 283 283 286 283 282 281 281 280 280 279 278 281 285 289 290 283 285 290 290 290
317 315 314 313 312 313 301 297 299 298 290 290 292 293 288 289 288 286 287 287 287 285 284 284 283 282 284 282 283 282 282 279 278 278 277 277 289 288 286 289 290 290 290 290
317 315 314 313 312 311 304 296 298 296 293 291 293 293 294 293 292 289 286 289 286 288 285 284 282 283 282 282 280 284 282 284 282 282 283 287 289 290 291 290 290 290 290 291
315 314 314 312 312 313 302 296 294 294 291 290 291 290 294 295 293 293 289 288 289 288 289 286 285 285 284 281 282 283 285 286 285 285 286 286 289 290 291 291 290 291 291 291
315 314 313 311 312 311 303 297 295 293 291 287 288 294 291 294 293 293 293 291 291 290 290 287 283 284 286 283 284 284 285 286 284 284 286 287 288 289 290 290 291 291 291 291
315 314 312 311 311 309 299 295 294 293 291 286 287 290 291 292 292 292 292 291 289 288 287 286 283 285 285 282 283 281 286 286 284 284 287 288 288 289 290 290 290 290 290 290
314 313 311 311 310 305 294 290 293 297 294 288 282 287 288 290 291 291 290 290 288 287 286 284 284 287 285 279 280 286 287 288 288 289 288 288 289 290 290 289 290 291 291 291
313 311 310 310 308 294 288 289 291 298 292 288 281 281 287 287 288 287 288 288 286 287 284 284 285 285 284 278 278 286 287 289 289 288 288 287 288 289 290 291 291 293 292 291
311 310 308 307 305 300 294 294 300 294 288 287 279 278 283 287 284 284 285 285 285 284 283 284 284 283 281 278 284 286 288 287 287 287 288 288 289 289 289 290 290 290 289 289
310 308 306 298 292 290 292 300 296 290 288 280 278 278 278 285 282 283 284 283 280 282 281 282 283 280 278 285 286 286 288 288 288 287 287 287 288 288 288 289 289 288 288 288
307 299 291 287 291 303 301 290 287 286 284 283 278 280 280 283 280 280 280 280 278 277 280 281 279 280 284 285 287 288 288 289 287 285 285 285 286 287 287 287 287 287 287 287
296 290 289 295 301 291 287 282 282 281 279 282 281 282 281 284 282 280 281 277 277 276 279 279 278 277 282 284 285 287 288 288 287 287 288 288 288 287 286 286 287 287 287 286
296 295 296 293 289 286 282 278 281 278 279 282 282 283 283 282 284 282 280 276 275 273 279 276 276 280 283 284 284 285 286 286 287 288 288 288 288 287 287 287 287 287 287 287
296 291 288 286 283 275 279 273 275 276 281 282 283 281 282 281 282 279 277 274 274 279 274 277 279 281 283 283 284 285 286 287 287 288 288 289 289 288 287 287 287 286 286 287
289 285 280 283 278 277 278 280 281 283 284 284 282 280 282 281 279 277 275 276 277 272 271 275 280 281 283 283 284 286 286 287 287 287 287 286 286 287 287 287 286 286 286 287
287 286 282 277 280 278 279 281 283 284 288 284 282 280 281 275 274 275 277 275 271 274 275 278 281 282 281 281 283 283 284 285 285 285 286 286 286 286 286 287 287 286 286 286
285 281 276 279 280 278 280 283 284 288 287 285 283 278 276 276 277 273 274 273 272 277 279 281 281 281 281 282 283 284 284 284 285 285 286 286 286 286 286 286 286 287 286 286
279 277 281 281 281 282 282 286 285 290 288 281 278 275 275 275 269 271 276 275 278 280 280 280 281 281 282 282 283 284 285 285 285 285 285 285 286 286 285 285 287 286 287 287

GFSNW_sfc_thetae_066.txt.gz
Theta_e
317 316 315 316 319 315 309 307 299 306 309 302 302 299 298 298 298 300 299 300 299 298 297 296 295 295 295 295 295 294 293 296 292 291 292 294 295 294 295 291 288 290 290 290
316 317 315 315 317 312 310 304 305 306 308 298 298 299 296 297 297 296 297 297 297 297 295 294 295 295 294 296 295 294 295 292 289 288 291 293 292 293 293 292 293 290 288 291
316 316 315 315 316 313 309 304 299 301 304 301 299 297 297 296 296 296 296 296 296 296 294 296 294 293 294 296 298 296 296 292 290 290 291 293 290 290 292 293 290 291 290 292
315 315 316 315 315 314 306 303 300 299 297 299 299 298 297 295 294 296 295 294 295 295 292 293 293 293 292 295 297 294 294 290 290 290 290 291 291 291 290 290 293 289 291 290
316 315 316 315 315 311 305 303 300 297 297 295 298 296 297 295 294 295 294 293 293 293 294 295 293 294 293 293 294 293 293 291 291 289 290 290 289 292 291 291 291 290 291 291
317 315 316 314 314 310 307 305 302 300 293 295 297 298 298 297 295 293 294 294 294 293 293 295 296 296 296 296 294 292 292 292 291 290 289 290 289 292 292 292 293 293 290 294
317 315 316 315 313 312 307 305 304 300 296 294 296 295 296 295 294 293 293 294 295 294 298 299 299 297 296 295 294 295 293 293 293 292 289 283 289 293 293 293 293 294 293 293
318 316 316 316 314 313 307 305 303 301 297 295 294 294 294 294 294 293 293 294 295 298 296 294 292 293 292 291 291 292 294 294 290 289 287 290 289 289 290 290 291 295 294 294
317 316 315 316 314 313 312 307 307 306 302 298 296 294 295 294 294 293 292 294 297 298 297 296 292 291 292 289 289 291 292 293 292 288 287 285 288 292 294 295 288 295 296 295
316 317 316 316 314 313 311 309 308 305 301 297 295 295 294 296 295 294 293 293 293 296 296 294 294 293 292 290 289 287 289 289 288 288 287 289 293 294 295 286 290 296 297 297
312 317 317 316 314 314 309 307 306 305 301 297 297 297 295 295 298 296 294 294 293 294 293 294 295 293 293 291 291 289 289 288 287 287 286 284 294 292 291 295 296 297 296 296
310 312 316 316 315 313 311 303 305 304 303 297 298 298 298 298 297 298 295 297 295 298 296 295 295 293 292 292 289 291 288 292 292 291 292 293 296 295 296 297 297 296 296 296
311 313 314 315 314 313 310 304 303 303 300 297 298 297 300 301 299 299 298 298 298 297 298 298 297 293 295 290 290 291 292 293 292 291 294 293 295 297 296 296 297 297 296 295
310 311 313 315 313 312 310 304 305 304 303 299 296 299 297 300 300 298 299 298 298 299 301 299 299 297 295 294 292 292 294 292 292 292 294 293 295 296 297 296 296 295 295 295
312 313 313 314 312 312 309 305 304 303 301 298 294 296 297 299 299 298 299 300 300 300 298 298 298 295 295 293 293 292 294 294 292 291 295 296 295 297 297 295 294 295 294 294
311 311 313 313 311 307 306 301 305 304 305 298 294 295 295 296 298 298 297 298 297 299 299 296 295 294 296 292 291 296 296 296 297 296 295 294 294 296 297 295 295 295 295 295
311 308 313 310 310 307 300 299 300 304 304 298 291 292 294 294 296 296 298 297 296 298 296 295 295 295 295 293 290 295 295 296 295 295 295 293 294 294 296 295 295 296 296 296
310 309 311 310 305 303 300 303 301 300 299 298 290 289 292 294 294 294 294 296 297 293 294 294 294 292 293 287 294 294 294 294 295 295 294 295 296 296 295 296 295 294 294 295
309 310 306 302 301 298 300 301 299 299 298 294 293 290 289 293 291 293 293 294 292 292 293 293 292 292 287 293 294 294 294 293 294 294 293 294 295 295 295 295 294 293 293 294
309 303 296 293 298 302 301 297 295 296 295 294 290 292 289 293 291 290 292 292 290 289 289 290 288 289 294 294 294 295 295 295 294 291 290 292 293 293 294 294 294 293 293 293
298 292 291 298 303 297 293 290 292 291 290 291 290 291 288 291 290 290 290 289 288 286 287 287 288 287 290 290 293 294 295 296 295 295 296 296 296 294 294 293 293 293 294 293
297 298 299 297 293 291 289 288 287 287 288 287 288 289 292 290 293 290 288 286 285 284 287 286 284 290 289 290 291 292 294 295 294 294 294 295 294 294 293 294 294 293 293 293
298 295 290 290 287 283 283 278 283 283 287 287 288 287 290 289 291 288 288 285 285 286 284 284 288 289 289 290 290 290 293 293 294 294 294 294 294 294 294 293 293 293 293 294
291 287 282 285 283 284 286 287 286 289 289 287 289 287 290 289 288 287 286 283 285 281 280 283 290 289 290 290 291 291 291 293 293 294 294 294 292 292 292 293 293 293 293 293
289 289 285 284 288 286 287 288 288 288 291 288 288 289 290 286 283 285 282 279 280 282 284 289 290 290 290 290 291 292 292 292 291 292 292 292 292 292 293 294 294 293 293 292
288 286 284 284 286 285 286 288 287 291 290 289 292 286 286 284 285 281 282 283 282 287 288 290 289 289 290 290 291 291 291 292 292 292 292 292 292 292 293 293 293 293 292 292
285 286 286 288 288 288 288 289 289 292 289 287 288 286 286 284 282 282 284 284 289 289 288 289 290 289 290 291 290 290 291 291 292 292 291 291 292 292 292 292 293 292 293 292

GFSNW_sfc_thetae_072.txt.gz
Theta_e
317 316 316 316 315 316 311 307 299 311 314 302 303 300 301 299 302 304 301 301 301 300 298 295 297 298 298 299 299 297 299 295 290 292 295 297 296 295 295 288 286 288 285 284
317 316 316 316 314 313 313 303 303 311 310 296 299 304 302 302 300 301 300 300 303 302 299 296 300 299 299 300 299 296 296 293 287 288 291 293 292 295 296 293 291 286 282 285
318 316 315 316 315 315 312 304 298 303 304 303 299 299 300 300 302 300 300 299 300 299 298 300 298 297 298 300 300 300 297 294 291 287 290 293 290 292 293 291 285 286 287 288
319 316 315 315 314 315 312 303 298 303 296 299 299 300 301 298 298 300 300 298 298 297 295 297 296 297 296 299 299 298 295 291 291 291 292 292 292 292 292 289 290 285 289 290
319 318 315 315 314 315 308 300 301 303 299 301 298 298 298 298 300 299 298 296 299 297 295 294 294 297 296 296 296 295 295 291 291 289 292 292 290 292 292 292 292 291 291 289
315 318 315 315 313 313 307 307 307 302 299 299 297 296 298 300 301 299 299 297 297 296 296 298 298 298 297 297 295 293 292 291 290 287 293 292 288 292 293 293 293 292 287 291
315 317 317 315 313 311 310 309 306 300 295 298 298 299 300 298 299 298 297 297 296 298 301 301 299 298 297 297 296 297 293 292 292 288 290 281 290 294 295 295 295 294 294 295
315 314 317 317 316 312 310 310 308 301 295 298 299 300 299 299 298 297 297 296 299 301 300 295 292 292 293 293 294 294 295 294 289 286 285 290 289 291 291 289 290 295 293 295
315 314 315 316 316 314 311 311 312 307 297 296 302 299 300 296 295 294 295 297 300 300 297 295 288 288 293 290 290 295 295 294 290 286 283 280 289 292 296 294 283 294 295 295
314 313 313 315 315 314 312 311 312 308 299 302 302 298 296 301 298 296 294 295 295 298 294 292 292 292 296 290 290 287 288 288 285 286 284 288 292 294 296 282 286 295 295 295
313 314 312 312 311 314 311 310 313 308 302 303 304 301 298 299 299 295 295 294 294 293 291 293 295 292 294 292 293 290 288 287 285 286 283 280 295 293 288 293 294 296 294 295
312 313 312 313 312 309 311 306 312 312 305 303 303 302 303 301 301 297 297 297 296 298 294 296 299 293 294 293 288 293 286 291 289 290 290 295 295 295 297 298 296 294 295 295
312 312 313 312 310 308 310 307 310 307 302 301 302 301 303 303 302 302 297 299 302 300 302 301 299 294 296 289 290 291 292 294 289 289 292 293 295 296 297 297 296 297 297 295
311 312 312 311 309 308 307 307 309 307 302 296 299 303 300 304 302 302 301 300 302 303 302 300 300 296 296 292 292 291 292 292 290 289 292 293 295 296 297 297 297 296 296 295
311 311 312 311 310 308 306 306 309 310 301 295 298 300 301 302 302 301 301 300 300 300 298 297 298 297 294 294 292 290 294 292 288 288 293 294 293 297 298 296 295 295 293 292
310 311 311 311 310 309 304 299 307 309 307 298 295 298 298 300 301 300 300 301 301 301 299 298 297 298 296 291 289 295 295 296 296 293 295 295 295 297 297 296 296 295 294 293
310 310 310 310 309 306 301 298 300 305 307 297 294 293 296 299 300 300 299 300 300 300 298 296 297 295 294 293 290 294 296 296 297 297 295 292 294 293 296 297 296 297 294 293
309 309 309 308 308 306 301 306 305 304 301 301 292 292 291 297 295 294 299 297 298 297 297 295 294 293 293 287 295 297 296 296 296 295 294 294 295 295 295 295 294 292 291 292
309 308 307 305 302 298 301 307 307 304 299 293 291 287 289 295 296 295 295 297 293 295 293 293 293 291 286 292 293 294 294 293 294 295 295 294 293 293 293 293 292 290 291 292
307 305 299 293 298 305 302 297 294 294 296 296 294 296 289 294 294 293 293 295 293 288 291 292 288 289 295 297 296 296 296 295 295 292 290 292 291 292 292 291 292 291 291 292
301 294 291 299 304 298 295 286 288 290 290 295 295 295 289 295 292 291 294 291 290 286 288 287 287 286 292 293 293 295 296 295 295 294 294 294 294 293 292 292 292 291 291 291
298 297 301 298 292 287 286 285 289 290 288 293 291 293 294 293 296 292 289 289 288 284 289 285 283 290 291 292 294 295 295 295 294 295 294 294 294 294 293 292 291 292 292 292
300 294 288 286 286 283 283 282 286 288 292 293 292 289 291 291 294 291 289 285 284 288 284 283 287 291 291 292 294 294 295 294 294 294 294 294 293 294 294 292 292 292 292 293
288 285 282 283 282 284 287 288 290 293 292 292 293 290 291 291 290 290 285 286 286 281 281 283 289 290 291 292 294 294 293 293 293 293 293 293 293 292 292 292 292 292 291 292
285 285 283 284 289 292 292 294 294 293 295 294 291 292 292 288 285 289 284 281 280 283 283 288 292 291 291 291 293 293 293 293 293 293 292 292 291 291 291 292 292 292 292 292
286 286 287 291 288 290 291 293 291 295 295 295 294 290 287 285 286 282 282 281 281 285 289 293 292 291 291 292 293 293 292 292 292 291 291 291 291 291 291 291 291 291 292 291
284 285 291 292 292 291 290 293 292 296 293 289 292 283 284 288 284 283 286 285 289 292 291 293 292 291 292 293 293 293 292 291 291 290 291 291 291 291 290 290 291 291 292 291

GFSNW_sfc_thetae_075.txt.gz
Theta_e
317 317 316 317 315 315 310 299 292 305 308 296 296 292 298 301 301 301 299 298 298 296 295 294 294 296 298 298 297 293 295 291 285 288 291 293 292 291 290 284 283 284 281 282
317 316 315 316 315 312 306 297 295 303 303 289 290 295 298 300 299 298 297 296 299 298 297 294 297 296 299 298 298 294 293 289 282 284 287 289 288 291 292 290 286 283 280 283
318 316 315 316 314 313 306 296 291 295 296 295 292 292 293 295 299 298 298 295 297 294 295 297 295 294 297 298 299 300 296 289 286 283 285 288 285 289 291 287 281 281 283 284
318 317 315 315 314 313 307 295 291 294 288 291 292 292 294 293 294 296 295 293 294 293 290 292 293 294 294 296 300 295 291 286 287 287 289 289 289 290 289 286 286 283 286 286
315 318 315 315 313 313 302 293 294 295 293 294 292 293 291 293 296 295 293 292 295 292 289 290 290 294 291 290 292 290 291 287 287 286 290 289 288 290 290 289 289 287 287 286
315 315 317 314 313 311 301 298 300 295 293 291 291 292 293 295 295 294 295 293 291 292 293 293 292 293 293 293 291 289 288 287 286 283 290 289 285 289 290 290 290 290 285 289
315 314 317 315 313 311 303 301 301 293 290 292 293 296 297 295 294 292 293 293 291 294 297 296 294 292 294 294 292 293 289 288 288 282 286 279 288 291 292 292 293 292 292 292
315 314 315 317 315 312 304 303 300 295 289 293 295 296 296 296 294 292 293 293 294 295 293 290 287 287 288 290 291 291 291 290 285 282 281 286 287 289 288 287 287 293 292 293
314 314 313 315 316 314 306 304 304 303 293 291 297 294 295 292 288 289 291 293 294 294 292 290 283 283 287 286 288 291 292 290 287 282 278 277 286 290 293 290 279 292 293 292
313 314 313 313 314 314 308 305 306 300 296 297 298 292 291 294 291 288 288 290 291 292 289 286 285 287 292 285 286 283 285 284 281 281 277 284 290 291 293 278 280 291 293 292
313 313 313 313 313 313 310 306 307 304 298 298 301 301 293 294 292 289 290 289 289 287 285 286 288 286 289 287 288 286 284 280 280 281 278 278 291 290 284 287 291 293 292 292
313 313 313 313 312 309 312 304 308 308 303 300 301 300 299 299 298 293 292 290 291 292 287 289 293 289 288 288 283 289 283 288 285 284 284 291 291 290 293 294 293 291 292 293
312 312 312 313 313 312 308 303 303 303 301 300 299 299 304 300 299 298 291 293 296 295 297 295 294 290 289 284 285 285 287 290 286 286 288 291 292 293 295 294 294 294 294 293
312 312 312 313 312 311 307 301 303 305 300 294 293 301 298 300 299 298 297 296 298 296 295 296 292 287 291 287 288 286 288 288 286 285 287 289 291 292 294 294 295 294 293 293
312 312 312 312 312 309 303 299 301 308 300 293 295 299 298 298 297 297 298 296 294 293 293 292 290 292 289 288 287 285 289 288 284 284 289 289 290 293 295 293 293 293 291 290
311 311 311 311 311 309 300 292 300 303 304 297 290 298 295 296 297 296 295 295 294 294 294 291 291 293 292 281 280 290 291 291 291 289 291 291 292 294 294 293 293 292 291 291
311 310 310 310 309 303 296 294 300 304 308 297 290 291 294 295 295 294 294 295 294 295 292 290 290 289 292 281 281 291 293 292 291 292 292 289 290 291 294 294 294 295 292 291
310 310 309 308 308 305 300 300 306 305 301 299 288 290 289 293 290 290 294 292 292 292 291 290 289 289 287 282 290 294 294 291 291 291 291 291 292 292 292 292 291 289 289 290
309 308 306 301 301 297 299 307 307 305 298 287 289 285 284 292 290 291 291 292 285 291 287 288 288 285 282 288 289 291 293 291 291 291 291 291 291 290 290 289 289 288 289 289
307 300 296 290 297 306 304 299 295 295 295 294 288 292 286 290 289 287 288 288 286 282 286 288 282 284 291 293 293 292 292 292 292 289 288 288 288 288 288 288 289 289 289 290
295 292 289 296 305 298 295 288 287 287 285 291 289 291 287 292 289 288 289 284 287 279 284 284 281 281 288 290 292 292 292 292 292 291 290 291 291 290 289 289 289 289 290 289
295 295 298 297 293 289 285 283 287 286 285 288 288 289 291 291 293 288 284 285 283 278 285 279 279 285 288 289 290 291 291 292 291 292 291 291 291 291 290 288 289 289 290 290
296 293 290 287 286 279 281 279 282 285 287 289 288 287 289 289 291 286 285 280 278 284 277 279 281 286 288 289 290 290 290 291 291 290 291 291 290 291 290 289 289 290 290 290
288 285 281 281 279 282 284 283 284 289 288 291 292 287 288 289 287 285 282 282 281 275 275 279 284 286 287 289 290 290 289 290 290 290 291 291 291 290 290 290 290 290 289 290
286 285 278 281 284 285 286 288 287 289 292 293 290 289 289 285 286 285 279 277 274 278 279 282 287 288 289 289 289 289 289 290 290 290 290 289 289 289 288 289 290 290 290 290
287 285 285 286 283 282 285 288 287 290 293 293 291 287 286 284 284 278 278 276 277 281 284 287 287 288 289 289 290 290 290 290 290 289 289 289 288 289 288 289 289 290 290 289
284 282 288 285 286 285 287 288 287 294 293 287 287 285 284 282 273 274 279 279 283 286 286 288 288 288 289 290 291 290 291 289 288 288 288 288 289 288 288 287 288 290 290 289

GFSNW_sfc_thetae_081.txt.gz
Theta_e
318 317 317 316 316 312 307 296 287 301 303 292 289 289 295 300 297 298 296 295 296 294 294 291 291 293 297 296 295 292 293 288 285 287 292 293 293 289 290 285 283 280 279 282
318 317 316 316 314 311 304 294 293 301 301 287 286 290 294 296 295 295 295 293 295 295 291 289 292 294 298 297 296 291 292 289 282 283 286 289 289 291 289 287 284 280 278 282
315 317 316 315 314 313 302 292 288 293 294 291 288 288 290 291 296 295 295 293 293 291 289 292 292 294 296 296 295 301 295 289 285 282 284 286 283 287 288 286 281 281 281 283
314 315 318 316 314 313 302 292 287 291 287 289 289 289 290 290 291 293 293 291 291 289 287 288 288 291 293 294 299 293 291 287 285 286 288 286 285 286 287 285 284 283 284 284
315 314 316 316 313 312 300 291 290 292 290 290 289 290 287 290 293 291 291 289 292 289 287 288 287 289 289 289 291 289 288 285 285 284 287 287 286 287 287 286 285 285 285 285
315 314 313 314 313 309 297 297 296 294 291 287 286 286 289 292 292 294 293 290 288 288 290 291 290 291 291 290 288 287 286 285 283 281 287 288 285 288 287 287 287 287 283 287
315 314 315 314 314 309 301 299 298 292 288 289 289 291 293 292 292 291 294 291 288 290 293 293 290 289 290 290 288 289 285 286 285 280 284 278 286 289 289 289 290 289 289 289
315 315 315 314 315 311 302 301 298 293 288 291 292 292 292 292 291 289 291 290 291 291 291 287 285 285 286 287 288 287 289 287 282 279 279 284 286 287 286 286 287 291 290 289
314 314 314 315 314 312 305 302 301 297 292 289 294 291 291 288 286 287 289 291 291 292 289 287 280 280 284 284 285 288 289 288 285 280 278 277 283 288 290 286 280 289 291 289
314 314 314 315 313 313 307 303 303 298 293 294 294 290 289 291 288 286 287 289 289 289 285 283 280 283 288 284 283 281 283 282 281 281 277 283 288 289 289 278 281 288 291 289
314 314 314 314 313 314 310 306 305 305 296 294 298 298 292 293 290 286 289 288 286 285 282 282 282 283 287 285 286 284 283 280 279 280 278 279 290 288 283 286 289 289 288 289
313 314 314 314 314 314 309 301 303 305 300 296 301 301 302 300 299 293 290 287 288 288 283 283 284 286 285 285 283 285 282 286 283 284 284 290 290 287 288 290 290 290 290 289
312 313 313 314 314 313 310 302 300 303 297 295 296 295 299 301 299 299 291 291 292 291 290 288 288 286 287 283 285 285 286 288 286 286 287 288 290 289 291 292 291 291 291 289
312 312 313 313 313 312 306 299 298 297 295 291 290 299 295 300 300 299 299 299 294 292 291 288 286 284 290 286 287 285 287 287 286 284 287 286 289 290 292 292 292 292 290 289
312 312 312 312 312 311 301 297 298 300 294 288 290 295 297 297 296 296 297 296 291 289 287 286 285 290 287 285 285 284 288 287 284 285 289 287 286 289 292 291 291 291 289 288
311 312 311 311 310 306 301 293 297 300 301 294 284 292 293 295 293 293 292 293 290 289 288 287 288 291 289 280 280 289 290 289 289 289 286 288 289 290 291 291 291 290 289 289
311 311 310 309 308 302 294 291 296 302 301 292 287 286 292 293 292 290 290 290 289 289 287 287 289 288 290 279 285 291 292 291 290 289 290 288 289 289 291 291 290 292 289 289
311 311 310 308 308 304 297 301 305 302 295 296 287 287 287 290 287 286 289 287 287 288 289 287 287 286 285 281 289 292 291 289 288 289 288 289 290 290 289 290 289 288 287 287
310 309 307 303 299 295 296 305 306 300 295 287 287 285 282 289 288 288 288 288 282 287 285 286 287 284 282 289 291 291 291 291 289 288 288 288 289 288 287 287 287 287 286 287
308 302 295 291 294 304 303 298 293 295 295 293 286 290 286 287 285 285 286 287 286 281 285 286 282 287 292 294 292 292 291 291 289 287 285 286 286 286 285 286 287 288 287 287
297 292 289 295 304 293 289 286 287 286 286 289 290 289 285 289 285 287 290 287 287 279 284 284 281 282 290 295 295 296 291 290 291 289 290 291 291 287 286 286 287 287 287 286
296 295 299 298 292 287 283 283 285 286 283 288 287 288 289 288 292 291 288 286 284 279 282 277 280 285 290 290 291 289 290 290 290 290 290 289 288 288 287 286 286 287 287 287
295 292 289 285 286 281 280 278 281 283 286 285 287 285 291 291 293 290 285 283 281 282 275 280 283 288 288 288 288 287 288 290 289 288 289 289 287 288 288 286 287 288 287 288
288 283 279 278 279 281 279 280 282 285 285 286 288 284 288 290 289 287 284 285 280 274 275 280 285 288 287 287 287 287 287 289 288 288 289 288 288 287 287 288 288 288 287 288
284 281 276 279 282 281 281 283 283 285 287 288 285 287 287 286 286 286 283 277 273 277 280 284 288 288 286 285 286 286 287 288 288 288 288 287 287 287 286 288 288 288 288 286
285 283 280 282 280 279 280 282 284 286 287 289 291 287 285 284 285 282 278 276 277 282 284 287 288 286 285 285 286 286 287 288 288 288 288 287 288 288 287 287 288 288 287 285
284 284 284 283 282 282 282 284 284 287 287 281 287 284 282 283 280 277 280 279 284 286 288 289 288 286 286 285 286 287 288 287 287 287 288 287 287 288 287 286 286 287 286 286

GFSNW_sfc_thetae_087.txt.gz
Theta_e
318 319 318 315 315 312 305 294 289 298 301 291 287 288 293 298 296 296 295 295 294 292 292 291 291 292 295 296 295 292 294 291 286 291 298 294 295 292 294 291 285 285 284 289
317 319 318 316 314 311 299 292 292 301 301 287 285 289 292 294 294 293 293 293 295 295 291 288 291 293 298 297 295 292 292 290 284 285 291 294 294 294 291 290 289 283 284 289
315 318 317 315 314 312 299 291 286 292 294 290 289 288 289 290 294 293 293 292 292 290 289 291 290 291 296 296 296 302 295 290 287 284 287 289 289 290 291 290 286 285 286 289
315 316 318 316 313 313 297 290 287 290 287 288 288 289 289 289 289 293 292 290 289 288 285 287 287 290 291 293 297 293 291 286 287 287 288 288 287 287 288 287 288 287 289 287
316 314 315 317 313 311 296 289 289 291 289 289 288 289 287 288 290 290 290 288 290 288 286 288 286 288 288 289 291 289 289 286 286 285 290 288 286 288 287 287 288 287 287 288
317 315 313 316 313 306 295 294 295 294 289 286 286 286 288 291 291 292 293 291 289 288 290 290 291 291 291 290 289 288 287 286 285 283 287 288 285 289 289 288 288 289 287 292
317 315 314 315 313 307 300 298 295 290 284 287 287 289 291 290 290 290 292 291 289 291 292 292 290 288 288 288 289 289 286 287 285 283 285 281 289 291 291 290 290 291 290 292
317 316 315 314 314 309 301 299 297 292 287 289 290 290 290 290 289 288 290 290 291 290 290 288 285 285 286 287 289 288 288 287 284 282 281 286 287 289 288 288 289 288 291 291
316 316 315 315 315 311 303 301 299 296 290 288 293 290 290 287 286 286 289 293 293 291 288 286 282 281 284 285 286 289 289 288 286 283 281 280 287 289 292 289 283 288 292 290
316 316 315 315 315 312 305 302 302 297 291 293 293 290 288 290 287 286 287 291 290 288 284 283 281 282 287 284 285 284 283 283 283 283 283 286 290 291 291 283 285 290 293 291
316 316 315 315 314 313 309 302 303 300 293 293 296 297 292 292 290 287 288 287 287 286 282 282 282 282 285 286 287 285 284 282 282 282 282 281 292 290 287 289 291 292 292 292
316 315 315 315 314 314 310 300 304 306 299 294 300 300 299 298 296 293 291 288 287 289 284 283 283 284 284 286 284 286 284 287 285 286 287 292 292 291 292 291 293 293 293 292
315 314 314 315 314 314 309 299 302 303 297 294 293 294 298 300 300 301 291 290 291 289 290 287 286 284 287 284 285 287 288 289 287 288 289 290 292 292 291 293 293 294 294 292
315 315 314 314 314 313 306 300 300 297 293 288 290 297 294 298 299 299 299 296 293 291 292 289 286 284 289 286 287 286 289 288 287 286 289 290 291 291 292 293 294 293 292 291
315 315 314 313 313 311 302 299 298 299 293 286 288 293 294 295 297 297 297 296 293 291 289 286 284 287 288 286 284 283 288 289 287 288 291 291 291 291 293 292 293 292 290 289
315 314 314 312 312 308 303 297 299 300 298 289 283 292 290 292 293 294 293 294 291 290 288 286 287 289 290 282 281 288 290 290 291 291 290 290 291 291 293 293 293 291 291 290
314 313 312 311 309 304 296 293 296 303 299 290 284 285 291 292 290 289 288 290 288 288 287 285 287 288 290 280 285 290 291 292 292 292 291 290 291 291 292 293 292 292 289 290
313 312 310 309 308 304 298 301 304 303 297 293 283 284 287 289 286 285 287 285 286 286 287 287 285 286 286 282 288 292 295 296 295 295 291 292 291 291 290 290 289 288 288 288
311 310 309 305 301 296 297 305 304 301 294 285 286 281 278 287 285 286 286 286 281 286 284 285 286 283 281 287 288 290 292 293 294 290 289 289 290 289 288 288 288 287 287 288
309 306 298 292 298 306 304 299 294 294 294 292 285 286 280 286 282 282 284 285 280 284 285 285 282 284 290 292 293 292 293 292 290 289 287 287 288 288 287 287 288 289 288 287
300 293 290 298 304 296 292 287 287 287 285 289 288 287 283 287 284 283 288 288 288 283 283 281 281 279 287 294 294 296 295 293 291 292 293 292 291 289 287 286 287 288 288 288
297 296 300 298 292 288 284 283 285 283 281 285 286 286 285 285 288 285 287 285 286 281 283 281 279 284 288 289 290 293 295 296 295 291 291 290 290 290 289 287 287 288 287 288
299 294 289 288 286 279 279 276 281 280 284 285 286 285 288 286 287 285 287 284 283 282 275 278 281 287 289 289 288 288 290 292 293 289 291 290 288 289 289 287 287 287 288 288
288 285 280 282 279 280 279 280 282 287 283 286 287 283 284 288 287 288 284 285 282 273 273 278 284 289 289 289 289 286 287 288 288 288 289 287 288 287 288 288 288 288 287 287
285 285 279 279 281 281 283 286 285 285 289 287 283 284 287 285 282 286 285 280 278 277 278 282 288 290 289 288 287 285 286 286 286 287 287 287 287 287 286 288 289 288 287 286
286 284 279 280 281 278 280 283 284 286 289 287 286 284 286 285 285 283 281 279 276 279 281 286 289 289 288 287 286 286 286 285 286 287 287 287 287 287 286 288 288 287 286 285
282 280 282 283 283 283 283 287 286 290 288 282 287 282 283 287 283 281 281 278 281 284 286 287 288 287 287 287 287 286 286 285 286 286 287 286 287 288 287 285 285 286 286 286

GFSNW_sfc_thetae_090.txt.gz
Theta_e
320 320 320 317 315 312 310 305 295 308 310 300 299 296 297 298 299 300 299 299 298 296 297 295 295 295 297 299 299 295 299 294 288 294 301 301 295 295 299 295 291 292 292 293
317 317 319 317 314 311 308 299 301 309 309 293 295 296 296 298 297 297 297 296 297 298 295 292 295 297 301 300 298 296 297 294 289 289 295 297 296 298 296 295 297 292 291 293
315 316 318 316 314 312 308 300 294 302 306 300 297 295 295 294 299 297 298 297 297 295 294 296 294 295 298 300 299 302 299 294 291 288 289 291 291 295 296 296 293 292 293 296
316 316 318 317 314 312 307 301 295 298 293 296 297 296 295 294 293 298 298 294 294 292 291 293 292 295 296 298 298 297 296 292 292 293 293 292 292 291 293 292 294 291 293 293
316 316 318 317 314 311 305 297 297 299 298 295 295 294 293 292 293 295 293 293 295 294 292 293 292 293 294 294 297 296 296 292 292 289 292 293 290 292 292 291 292 293 294 293
317 315 314 316 313 309 304 303 304 300 294 293 293 292 293 293 295 296 297 296 294 293 295 296 297 297 297 296 294 293 293 292 291 288 291 292 290 292 293 292 293 293 291 295
317 316 314 316 313 310 308 305 304 297 290 292 291 292 293 293 295 293 295 296 293 295 299 300 300 296 295 295 294 296 293 292 293 290 292 285 293 295 294 293 294 294 295 296
317 316 315 317 314 310 309 309 305 299 290 293 293 293 294 295 295 293 294 296 297 299 297 294 292 293 293 292 293 294 295 293 291 289 289 291 291 293 292 291 291 293 294 295
317 316 315 316 315 310 310 309 309 305 294 292 295 293 294 291 291 292 294 299 301 297 296 293 288 287 289 290 292 294 293 295 292 290 287 285 292 294 296 293 288 294 296 296
317 317 315 315 315 311 311 310 309 306 297 298 298 294 293 296 293 291 294 296 296 296 294 290 289 288 292 289 289 290 290 291 290 290 289 292 296 296 295 288 290 295 298 297
317 317 316 315 315 313 312 309 310 306 299 299 300 300 297 296 296 290 294 293 294 296 290 290 291 290 292 292 294 292 291 290 291 290 289 288 296 295 291 295 297 297 298 298
317 316 316 315 315 314 313 307 310 311 304 300 303 304 305 303 301 298 297 294 293 298 293 292 293 291 293 293 290 294 291 294 293 293 294 297 298 297 298 296 298 299 298 299
315 315 315 315 315 314 312 308 308 308 303 300 300 298 304 307 305 306 295 298 297 295 298 297 295 291 295 291 293 293 295 294 294 294 295 297 298 299 298 299 298 299 300 299
316 315 315 315 314 313 310 307 309 307 301 293 294 301 299 303 305 304 304 301 299 299 301 297 295 292 296 293 294 293 297 295 294 295 298 298 298 297 297 298 299 298 298 298
316 315 315 314 313 313 310 309 308 308 300 292 293 298 299 300 302 301 302 301 299 298 295 293 292 296 294 295 293 292 297 296 294 294 297 297 299 300 298 298 298 299 297 296
315 314 314 313 313 309 306 299 307 307 307 296 289 297 296 298 298 300 300 300 300 298 296 294 294 297 295 292 289 295 299 300 300 298 300 299 301 300 300 298 298 299 298 298
315 314 313 312 310 308 299 297 303 307 307 295 290 290 296 297 296 296 297 299 298 298 294 292 294 295 295 293 288 294 297 299 300 300 299 298 300 299 298 298 298 298 297 297
315 313 312 310 308 305 299 303 305 307 301 298 288 288 291 296 294 293 296 294 295 294 294 294 292 294 293 288 293 296 297 298 298 298 300 300 300 298 297 298 296 295 294 294
314 311 309 305 302 297 299 305 305 306 300 289 289 286 286 294 293 294 293 295 290 294 291 292 293 291 287 292 295 296 297 297 297 300 300 300 297 298 296 296 295 295 294 294
310 306 299 294 298 306 305 299 295 295 297 294 288 291 287 293 292 292 292 293 291 286 290 293 289 289 295 297 298 298 299 299 300 297 295 294 295 296 296 295 296 296 294 294
302 293 290 300 305 298 294 288 288 289 286 290 290 290 288 294 291 292 294 290 289 284 289 288 289 288 293 298 297 299 300 300 300 300 300 301 300 297 296 295 295 295 294 294
297 297 301 298 293 288 286 285 287 286 284 288 288 289 291 292 296 293 291 289 288 281 289 286 285 292 296 296 296 297 296 296 298 300 299 299 299 299 297 296 294 294 295 294
301 295 289 288 287 283 282 279 281 282 286 288 288 287 290 291 295 292 290 284 284 289 284 285 289 295 295 296 296 295 295 294 294 298 300 299 299 297 296 294 295 294 293 294
288 285 282 285 283 284 285 285 285 288 288 289 290 288 289 291 289 291 284 287 287 283 281 284 292 295 295 295 294 292 291 293 293 295 299 297 296 295 295 295 294 293 292 293
285 287 283 283 288 287 288 290 288 290 292 291 289 290 292 289 287 287 287 282 281 283 286 290 294 295 295 294 293 291 291 292 292 295 295 295 294 293 293 294 294 294 293 292
288 287 285 286 285 283 287 288 288 292 291 293 293 288 286 284 287 283 282 283 282 287 290 294 295 295 294 292 292 291 290 291 292 293 293 293 293 292 292 293 293 293 292 291
284 284 286 288 287 286 287 289 289 293 291 289 289 284 284 289 285 283 286 285 290 292 294 295 294 294 293 292 292 290 290 290 291 292 292 293 293 293 292 291 292 292 292 291

GFSNW_sfc_thetae_093.txt.gz
Theta_e
319 320 321 320 317 313 309 305 299 312 316 301 303 296 299 299 300 303 301 300 299 298 298 297 297 296 299 302 301 296 300 296 292 294 302 303 299 295 298 291 290 295 292 290
318 319 320 319 316 312 309 300 302 312 313 298 298 299 298 299 298 299 299 298 299 300 297 294 297 298 302 302 300 298 299 295 290 292 297 299 295 300 299 299 297 292 290 291
318 317 317 318 315 313 310 301 298 304 307 304 298 296 295 296 301 299 300 299 300 298 296 299 296 297 300 302 300 303 302 296 293 288 291 295 292 294 300 298 294 293 293 295
318 316 316 318 315 313 309 301 299 301 299 300 298 297 295 293 293 300 300 297 297 296 293 294 295 297 298 300 300 300 299 291 295 295 295 295 294 293 294 293 294 290 294 294
317 316 317 317 315 312 306 299 297 301 299 298 296 294 293 293 293 295 293 294 296 297 294 295 293 296 296 295 299 298 299 292 295 293 294 295 293 296 296 295 294 293 294 294
318 315 317 316 313 310 302 304 306 301 299 297 296 297 295 293 295 295 298 297 295 292 294 297 298 298 298 298 296 295 295 294 293 291 294 294 292 293 294 295 296 295 292 296
318 316 316 317 313 310 307 306 304 299 296 296 295 295 294 292 294 293 295 295 293 296 300 300 300 299 299 299 298 298 294 294 294 291 294 287 294 298 296 294 294 295 294 298
317 316 315 317 314 311 309 309 305 301 296 299 297 295 294 295 295 294 294 295 298 302 300 295 293 295 295 296 297 297 297 295 292 289 291 293 294 295 293 292 291 298 297 298
317 316 315 315 315 312 310 309 311 305 299 298 299 296 296 293 292 292 295 300 302 300 297 294 289 288 291 290 294 297 297 297 293 293 288 287 293 296 297 295 289 298 299 298
317 317 315 315 315 312 311 309 312 305 299 302 299 295 294 297 295 292 294 295 296 299 294 291 290 290 294 288 290 292 293 294 291 292 291 294 297 298 298 289 291 299 300 300
317 317 316 315 315 313 312 308 311 305 301 302 301 301 297 297 296 290 296 293 295 296 291 292 293 291 294 292 295 294 293 292 292 293 291 290 299 297 293 297 300 300 300 301
317 317 316 315 315 313 313 306 311 311 304 301 305 305 306 304 302 298 298 294 295 297 295 295 295 293 295 294 290 298 292 296 294 295 296 300 301 300 302 301 300 301 301 301
316 316 315 315 315 313 312 308 310 308 302 301 301 300 305 308 307 307 296 297 298 296 300 295 296 292 295 291 292 295 298 298 296 297 299 300 300 301 301 301 301 302 302 302
316 316 315 315 314 313 312 308 311 306 302 294 296 303 300 305 307 306 305 302 302 301 301 296 295 292 297 292 294 295 298 298 297 297 300 301 301 301 301 302 302 301 301 302
316 316 315 314 313 313 312 310 311 310 299 294 295 299 301 303 304 302 303 302 300 298 295 294 292 296 294 295 294 291 296 296 294 294 301 300 301 303 304 302 301 302 301 300
315 315 315 313 313 312 308 299 308 311 308 297 291 299 297 299 300 300 300 300 300 298 296 295 296 298 295 292 289 296 298 299 300 299 303 302 303 303 303 301 301 301 301 301
315 314 313 312 312 310 302 299 305 310 309 297 292 292 297 299 299 299 299 301 299 299 296 294 294 295 296 293 289 295 297 299 300 302 302 300 302 301 302 301 301 301 301 301
315 313 312 311 309 305 303 305 307 309 302 299 291 290 292 299 294 292 298 295 297 296 294 296 293 295 294 290 293 296 297 298 299 300 301 301 303 303 301 301 300 298 298 298
314 312 310 307 304 298 299 306 307 309 301 291 291 289 288 297 296 296 295 296 289 297 291 291 294 291 289 292 295 297 299 298 299 300 301 301 300 299 301 300 299 298 297 297
311 307 301 294 299 306 305 299 295 296 297 297 290 294 290 294 294 293 293 294 291 287 291 295 289 289 295 297 299 299 300 300 301 298 297 299 298 299 300 299 299 299 297 297
305 293 291 301 306 299 294 288 288 289 288 292 292 293 290 297 291 292 296 291 292 285 290 289 289 289 294 299 300 301 301 301 301 301 302 302 301 300 300 299 299 299 298 296
298 298 302 299 293 288 285 285 288 287 285 290 289 291 294 295 299 294 293 289 290 283 292 287 285 292 298 299 299 300 301 300 299 300 299 301 302 302 302 300 299 298 298 297
301 294 289 289 288 283 283 281 284 284 290 290 291 288 293 294 297 293 292 286 285 293 285 284 289 296 298 299 300 299 299 298 297 297 298 301 302 302 300 298 298 298 296 296
289 285 281 286 283 286 288 288 289 291 291 290 292 291 290 292 291 291 287 289 290 283 280 284 293 296 298 299 299 297 296 296 295 296 297 300 301 300 300 298 298 296 295 296
286 288 284 285 292 292 293 294 292 292 293 292 291 291 292 290 289 290 287 284 281 283 285 292 297 298 298 298 297 295 294 294 294 296 297 300 301 299 297 298 297 297 296 295
290 289 290 291 289 289 292 292 291 294 293 294 294 290 288 286 286 284 283 283 281 288 292 297 299 298 298 297 296 294 293 293 295 297 299 300 298 297 296 296 296 295 295 294
285 287 293 292 292 290 291 293 291 295 292 290 290 285 284 290 285 284 288 285 291 295 297 299 299 298 297 296 295 293 293 294 295 296 297 297 297 296 295 293 295 295 294 293

GFSNW_sfc_thetae_099.txt.gz
Theta_e
322 322 323 321 320 316 308 300 292 307 307 294 293 289 295 299 297 299 298 297 295 293 293 291 290 291 294 298 296 292 293 288 283 288 295 298 293 290 296 288 287 290 288 285
321 321 321 319 318 313 303 295 295 306 303 289 288 292 297 298 297 297 296 295 297 296 293 289 292 293 299 298 296 292 292 286 281 284 288 291 288 291 292 295 293 286 281 285
321 320 319 318 317 314 303 295 290 297 297 295 288 289 293 293 298 297 298 296 296 294 292 293 290 290 296 297 298 305 299 289 285 281 285 288 287 290 290 290 283 284 286 286
321 320 319 318 317 314 302 294 290 296 292 293 291 292 292 292 291 296 295 293 294 291 288 289 289 290 291 295 302 295 290 285 287 289 291 291 289 290 291 287 286 282 286 287
322 320 318 317 316 312 299 292 290 294 291 294 292 293 291 292 292 290 289 288 292 290 286 287 285 288 287 288 291 289 290 285 288 286 292 291 289 291 291 290 289 288 289 288
322 320 317 316 314 308 297 296 298 296 294 293 291 291 292 293 292 293 294 292 289 287 289 291 291 291 290 290 286 285 286 286 285 282 289 290 286 288 289 288 289 287 285 290
322 320 317 316 314 309 299 297 295 289 287 292 294 296 295 293 292 290 292 291 287 291 296 295 293 292 292 290 288 289 286 286 286 282 286 279 288 292 292 290 292 292 292 293
322 320 318 317 314 312 303 302 298 293 287 292 294 295 294 294 293 292 292 293 293 295 293 288 286 288 288 290 290 289 289 287 283 280 280 287 288 290 289 287 288 293 292 293
321 319 318 316 315 313 306 303 305 299 290 289 297 294 294 290 287 290 293 293 296 294 290 287 281 281 286 285 288 292 291 289 285 282 279 279 287 291 293 290 282 293 294 292
321 320 318 316 315 313 307 302 305 299 292 295 294 291 292 293 289 287 289 290 290 293 286 283 282 284 289 284 284 285 285 285 282 281 278 287 291 293 294 281 285 293 295 293
321 320 318 316 315 314 309 302 306 300 293 295 298 299 293 292 290 286 289 287 288 287 283 284 285 285 287 285 287 287 286 282 281 283 279 281 294 292 287 291 292 294 294 294
320 319 318 317 316 315 311 299 307 307 300 296 303 302 300 299 297 292 291 288 289 290 288 286 286 286 286 286 282 290 284 288 286 287 287 294 294 293 295 295 293 293 294 294
319 318 317 316 316 315 311 302 304 302 296 294 298 298 301 302 302 301 290 289 293 291 292 288 286 284 286 282 284 285 288 293 289 289 291 293 294 294 295 295 294 295 296 296
319 318 317 316 315 314 311 302 304 300 296 289 292 301 298 302 301 301 299 296 297 295 293 288 285 285 289 284 286 285 288 288 289 289 292 293 294 294 296 297 297 296 296 297
318 318 317 315 314 313 309 305 306 305 296 290 291 295 297 299 299 299 299 297 294 291 288 286 285 288 288 288 286 287 289 287 286 287 293 291 292 295 297 295 295 296 296 295
311 317 316 314 313 312 305 297 304 307 304 292 287 294 293 295 296 296 295 296 294 292 289 287 289 291 288 280 281 290 292 294 293 291 291 292 293 294 297 296 296 296 296 296
309 316 314 313 312 307 298 294 300 308 305 293 287 286 291 294 294 293 292 293 291 290 289 287 288 288 289 281 284 291 292 293 293 293 292 290 292 292 295 297 297 299 297 296
311 314 312 311 310 305 299 302 307 308 298 295 284 284 287 293 288 288 292 290 290 290 289 288 286 288 287 282 290 293 295 295 295 295 295 294 294 293 295 296 295 294 294 294
312 313 311 308 303 298 296 308 307 304 297 287 285 281 280 291 289 290 289 289 283 289 285 285 286 284 281 287 290 292 292 292 292 294 294 293 291 292 292 294 293 292 292 292
312 308 303 295 300 307 307 301 296 295 294 291 285 289 284 290 288 287 287 287 282 278 285 287 283 284 290 290 293 294 294 293 293 291 291 291 291 292 292 292 294 294 293 293
307 299 294 301 307 299 294 290 288 289 286 290 289 288 286 291 287 287 288 283 285 281 283 282 281 281 289 293 293 294 295 295 295 294 294 293 294 294 293 293 294 293 293 293
300 299 303 300 295 290 286 285 288 287 285 290 287 288 289 291 294 288 287 283 280 278 286 284 279 286 291 291 292 293 294 295 295 295 294 293 294 294 294 293 293 293 294 293
302 297 292 289 287 282 282 279 283 284 288 289 288 287 290 291 293 287 284 280 279 285 277 280 282 288 291 291 293 293 293 294 294 293 293 293 293 294 294 293 294 293 293 293
287 284 281 284 281 284 285 285 286 289 288 290 291 289 288 290 285 285 280 283 281 275 276 279 283 288 291 291 293 293 292 292 291 291 292 292 292 292 293 294 294 293 292 292
285 285 283 283 285 286 287 290 289 290 292 292 290 288 288 281 283 281 281 278 275 279 280 282 287 289 289 290 290 289 288 289 289 290 290 291 292 291 291 293 293 293 292 292
285 286 285 285 286 286 288 289 288 292 292 293 290 285 282 280 281 279 278 277 278 281 284 287 289 289 289 289 288 287 287 287 288 288 289 291 292 291 292 292 292 292 292 290
284 285 289 288 287 289 289 290 290 294 291 287 286 281 279 281 275 276 280 280 285 286 287 288 290 289 289 288 288 288 288 288 288 289 289 290 292 293 291 289 290 291 291 290

GFSNW_sfc_thetae_102.txt.gz
Theta_e
322 322 322 323 320 316 307 297 290 303 304 293 292 290 293 299 296 297 296 295 294 291 291 289 289 289 292 296 295 290 291 286 282 286 292 294 290 288 292 286 285 289 286 284
322 321 322 322 317 312 300 292 292 304 301 289 290 290 295 297 296 295 295 294 295 294 291 288 290 291 297 296 294 290 290 285 280 282 286 290 287 289 291 293 290 285 280 285
321 320 320 320 317 313 300 292 288 296 297 294 290 289 291 292 298 296 296 294 295 292 290 292 289 289 294 295 294 304 297 287 284 280 283 286 285 289 290 289 280 281 283 284
322 321 320 320 317 314 299 292 290 294 290 292 291 292 292 290 290 295 295 291 292 289 286 287 287 288 288 291 298 292 289 283 285 287 289 289 288 288 289 285 284 280 283 285
323 321 320 319 316 311 296 289 288 291 289 292 291 293 291 291 291 290 288 287 290 287 285 287 285 287 285 286 289 286 286 282 285 285 289 289 288 289 288 287 285 285 287 286
323 321 319 317 314 307 295 294 296 294 292 290 290 291 292 293 292 292 293 291 288 286 288 290 291 290 290 289 286 284 283 284 283 280 287 287 284 286 287 286 288 286 284 287
323 322 319 317 313 308 296 296 295 291 287 291 292 294 294 292 292 291 293 291 287 291 295 294 291 289 289 289 288 288 283 284 284 280 284 278 287 290 290 290 290 290 290 291
323 322 320 318 315 311 302 300 295 290 286 291 293 294 292 293 292 291 292 293 293 294 291 287 285 286 287 289 289 285 286 284 281 278 280 285 287 289 288 286 286 291 291 291
322 321 320 318 315 313 303 301 302 295 288 287 294 292 292 289 288 289 291 292 293 292 288 286 281 280 285 284 287 288 287 287 284 281 278 278 287 289 291 289 281 291 292 291
322 321 320 318 316 313 306 301 304 298 289 293 295 292 292 292 288 286 287 289 289 290 284 282 280 282 287 283 284 284 284 284 281 280 278 284 291 291 292 279 283 291 293 292
321 321 320 318 316 314 307 300 303 298 290 291 296 297 293 291 290 287 288 287 287 286 282 282 282 282 286 285 286 286 285 281 280 281 279 281 293 291 287 290 290 292 292 293
320 320 319 318 317 314 309 297 304 305 297 292 302 301 300 297 296 291 289 288 288 287 284 285 284 285 285 285 282 289 284 288 285 286 287 294 294 293 293 293 293 292 293 293
316 318 319 318 316 314 309 299 302 300 295 294 297 297 301 302 300 299 290 289 291 289 290 286 284 282 285 282 283 284 287 290 288 288 290 292 293 293 294 295 294 295 295 294
312 318 318 317 316 314 310 301 303 299 294 287 288 300 298 302 301 300 297 295 295 294 291 286 283 282 287 282 284 283 286 287 287 287 289 292 294 293 294 295 295 294 295 295
312 316 318 317 315 313 308 303 303 301 291 286 289 295 298 299 299 299 298 296 293 290 288 285 283 286 286 284 285 285 288 288 287 286 291 291 291 294 295 295 295 295 295 294
310 310 317 316 314 312 305 296 303 305 300 292 285 294 293 295 297 297 296 295 293 291 288 286 287 289 287 279 279 287 290 293 294 291 291 291 291 293 294 295 296 296 295 295
310 311 314 314 313 308 299 294 299 307 301 292 285 286 291 294 293 292 293 293 291 290 288 286 287 287 289 279 283 288 291 293 294 291 291 290 291 292 294 296 296 299 295 295
311 311 310 312 311 306 299 300 308 305 298 295 286 284 286 292 287 287 291 289 289 288 287 287 285 286 286 282 288 290 293 294 293 291 292 292 292 292 293 295 295 294 293 293
311 310 309 309 305 298 298 307 305 303 297 287 285 281 279 290 288 289 289 289 283 287 285 284 286 283 280 287 288 289 291 291 292 292 293 293 291 292 292 292 293 292 292 292
310 307 303 295 300 307 306 300 295 295 295 292 283 286 282 288 287 285 286 286 281 277 283 285 281 281 290 289 291 293 292 293 291 289 289 289 288 290 290 292 294 294 293 292
304 298 287 299 307 300 295 288 286 287 286 289 287 287 284 290 285 286 288 282 283 276 282 282 280 280 288 292 292 293 294 293 292 293 292 293 293 293 292 291 293 293 292 292
299 294 302 301 295 288 285 284 287 285 284 289 286 287 289 289 291 287 286 284 280 278 284 280 280 285 290 290 291 291 291 293 293 293 293 293 292 292 293 292 292 292 293 291
301 296 289 287 287 281 281 280 282 284 288 289 288 287 289 291 291 287 285 280 279 284 277 280 284 287 290 290 290 291 291 292 292 292 292 293 292 293 292 292 292 292 292 292
285 284 280 283 280 283 283 284 285 289 290 290 291 288 288 289 287 286 280 282 280 275 275 279 283 286 289 289 290 291 291 291 291 291 292 292 292 292 292 292 292 292 291 291
284 284 282 282 284 284 286 290 289 290 293 292 290 287 287 284 283 280 280 278 275 278 280 282 285 287 287 287 289 289 290 290 290 290 290 291 290 290 291 291 292 292 292 291
284 284 285 285 284 282 287 289 289 293 293 294 289 285 283 280 280 279 278 277 277 281 283 286 287 288 287 288 289 288 288 287 288 288 288 288 289 290 290 291 291 291 291 290
283 283 288 286 286 287 288 290 291 295 292 287 285 281 281 279 274 276 279 280 282 285 285 287 288 289 288 288 287 287 287 287 287 287 287 288 289 290 290 289 289 290 290 290

GFSNW_sfc_thetae_105.txt.gz
Theta_e
322 322 322 323 322 315 304 294 288 301 302 292 290 289 292 298 294 296 294 294 292 290 290 288 287 288 290 295 294 289 289 285 281 285 290 291 289 285 289 283 280 287 286 283
322 321 322 322 319 310 298 290 290 301 299 288 289 290 294 295 294 293 294 293 294 292 289 286 289 290 295 293 292 287 289 283 278 281 285 288 286 288 287 291 287 283 278 283
322 321 321 320 318 313 297 291 287 294 295 292 291 289 292 292 296 295 295 293 293 290 288 290 288 288 293 293 294 301 294 285 281 278 281 285 284 287 288 286 279 279 281 284
322 321 320 320 318 313 296 290 288 292 289 291 289 292 292 291 290 293 294 290 291 288 284 286 286 288 288 290 294 290 287 282 282 285 287 287 287 287 287 283 283 280 282 284
323 321 320 320 317 310 294 288 287 290 291 292 291 292 290 291 291 290 288 287 289 288 285 287 285 286 285 284 287 284 284 279 283 283 287 287 286 288 288 285 284 284 285 285
323 321 320 318 314 307 294 292 294 293 291 289 290 290 291 292 293 292 291 290 288 286 288 289 289 289 288 287 285 283 282 281 281 279 285 286 283 285 286 285 286 285 283 286
323 322 320 319 313 310 296 294 296 291 287 290 292 294 294 293 292 291 291 290 288 291 293 291 288 287 288 287 286 287 282 283 282 279 283 278 286 289 289 288 289 289 289 289
321 322 321 320 315 312 300 297 293 291 285 291 292 293 293 292 292 290 291 292 292 293 290 284 283 284 285 287 286 284 285 283 280 278 278 284 287 287 287 285 285 291 290 290
317 321 321 320 316 314 305 300 297 291 286 286 294 293 292 289 288 288 290 291 291 291 287 285 280 279 283 283 285 285 285 286 283 280 277 278 286 288 289 288 281 291 291 290
314 321 320 320 317 315 309 299 303 295 287 289 294 291 292 292 289 288 286 289 289 288 283 281 279 280 285 281 282 282 282 282 278 280 277 283 290 291 290 279 283 291 292 291
313 315 321 320 317 315 311 301 301 298 291 291 297 297 292 291 291 287 288 287 286 285 281 281 281 280 284 283 285 285 283 280 279 280 277 279 293 289 286 288 289 291 292 292
314 314 319 319 318 316 313 297 302 300 293 290 299 299 298 296 295 291 286 289 286 288 283 282 283 283 283 284 281 286 282 287 284 285 285 292 293 291 292 292 292 292 292 293
314 313 315 319 318 316 312 301 301 299 293 292 294 295 299 300 297 297 289 288 290 289 290 286 284 282 285 281 282 283 286 289 287 287 291 291 293 293 294 294 293 294 294 294
313 312 312 318 317 315 313 304 302 300 293 286 287 298 296 301 300 298 296 294 293 291 289 285 282 281 286 281 285 284 286 286 285 286 288 291 293 293 294 294 294 294 294 294
312 312 313 316 316 314 311 304 303 302 292 284 286 294 297 298 299 298 297 295 292 289 287 284 283 284 285 283 283 284 286 285 284 285 289 289 291 292 295 294 295 295 294 293
311 311 313 313 315 313 305 297 303 301 299 291 283 292 292 295 297 296 295 294 291 289 287 285 286 288 285 278 279 287 288 292 293 290 291 291 291 291 293 294 295 295 295 295
310 309 310 313 313 308 302 295 299 306 300 291 284 286 290 293 292 291 291 293 291 290 288 286 286 287 287 279 281 287 289 290 291 293 289 287 290 291 293 294 295 297 294 294
309 309 310 310 310 308 301 301 306 305 297 294 283 282 286 291 287 287 291 288 289 288 287 286 285 286 284 280 289 289 291 292 291 290 290 292 290 291 292 294 294 294 293 293
309 309 309 308 307 298 300 307 305 302 296 285 282 281 279 289 287 288 288 289 285 287 284 285 286 283 280 287 288 288 290 289 289 291 292 290 290 290 291 291 291 293 292 292
308 306 300 296 301 307 306 300 295 293 293 288 282 285 282 287 285 284 286 287 284 278 283 285 281 280 288 291 290 292 292 291 291 288 287 287 287 289 290 290 293 294 294 293
301 297 289 294 306 299 291 285 285 287 285 287 285 285 283 288 284 284 287 283 283 278 282 281 279 278 287 292 292 293 294 293 292 292 292 292 291 290 290 289 290 292 292 292
299 296 298 300 291 285 283 283 285 284 283 287 284 284 287 286 290 286 284 282 281 278 283 277 280 284 290 290 290 291 291 291 291 292 292 291 292 292 291 291 291 291 292 290
299 296 288 285 284 281 281 280 282 282 286 288 287 286 287 288 290 287 284 281 280 282 278 279 282 287 289 289 289 289 290 290 290 290 291 292 291 292 291 291 291 291 290 290
286 284 280 281 280 283 284 285 287 286 289 288 290 287 288 288 286 286 282 283 280 276 276 278 283 286 288 288 288 288 289 290 289 289 290 290 291 291 291 291 291 290 289 290
284 284 281 281 286 284 285 288 289 290 292 291 290 286 287 284 284 284 281 279 276 277 279 283 286 286 287 286 287 287 288 289 289 289 289 290 290 290 290 290 290 290 290 290
284 284 284 285 285 281 285 288 288 292 292 293 289 285 284 283 284 279 278 276 276 281 282 285 286 285 287 286 287 288 288 288 288 288 289 289 289 289 289 289 289 290 290 290
283 282 288 286 284 285 286 289 290 295 292 287 285 281 282 282 280 278 279 279 286 284 285 285 286 287 287 287 287 287 287 286 286 286 286 287 288 288 288 287 288 290 291 290